GFSMW_925_temp_000.txt.gz
Temp
23 26 25 24 24 25 26 27 27 26 25 24 22 21 20 20 20 19 19 19 18 18 18 17 17 17 17 17 17 17 17 17 17 17 17 17 17 17 17 17 17 17 17
22 23 23 22 22 22 22 24 25 26 25 24 23 22 21 20 20 20 20 19 19 18 18 18 17 17 17 17 17 17 16 16 16 16 15 14 15 16 17 16 16 16 16
21 21 21 21 20 20 20 21 22 23 25 25 23 22 22 21 21 21 20 19 19 18 18 18 18 17 17 17 17 17 17 16 17 17 16 13 14 12 17 17 16 16 17
21 20 20 20 20 20 20 21 21 22 23 23 23 22 22 20 20 20 20 20 20 19 18 18 18 18 17 17 17 17 17 17 17 16 17 16 16 13 14 17 18 17 17
20 20 19 20 20 19 20 21 21 21 21 22 22 22 22 21 21 21 21 21 21 21 19 18 18 17 17 17 17 17 17 17 17 16 16 16 15 15 14 15 15 16 17
20 20 21 20 19 19 20 20 20 20 20 20 20 20 20 20 20 20 20 20 21 21 21 20 18 17 17 17 17 17 17 17 17 17 16 16 16 15 15 14 14 15 16
20 19 18 18 19 19 19 19 19 19 19 19 19 19 19 19 19 19 19 20 20 20 21 20 20 18 17 17 17 17 17 17 16 16 16 16 16 16 15 14 14 14 15
19 18 18 18 19 19 19 19 19 19 18 18 18 18 19 18 18 18 18 19 19 19 19 19 19 19 18 18 17 17 17 17 16 16 16 16 16 16 16 15 15 14 15
19 19 18 18 18 18 18 19 19 19 18 18 18 18 18 18 18 18 18 18 18 18 18 18 18 19 19 19 18 18 18 17 17 16 16 16 16 16 16 15 15 15 14
19 18 17 18 18 18 19 19 19 18 18 18 18 18 18 18 18 18 18 17 17 17 17 17 17 17 18 18 18 18 18 18 17 17 16 16 16 16 15 15 15 15 15
18 18 18 19 19 19 19 19 18 18 17 17 17 16 16 16 16 16 16 15 16 16 16 16 17 17 17 17 17 17 17 17 17 17 16 16 17 16 15 14 15 14 14
18 18 18 19 19 19 18 17 16 16 16 15 15 15 15 15 15 14 14 14 14 14 14 14 15 15 16 16 16 16 16 16 16 16 16 17 17 16 16 15 15 14 14
18 18 17 17 18 18 16 16 15 15 14 14 14 14 14 14 13 13 13 13 13 13 13 13 14 14 14 15 15 16 16 15 15 15 15 15 16 16 16 15 15 15 14
17 17 15 15 17 16 15 14 13 13 13 13 13 13 13 12 12 12 12 12 12 12 12 13 13 13 13 14 14 15 15 14 14 14 14 14 15 15 16 16 15 14 14
16 15 14 14 15 14 13 12 12 11 11 12 12 12 12 11 11 11 11 11 11 11 12 12 12 12 13 13 14 13 13 12 12 13 13 13 13 14 14 14 15 14 14
15 15 14 13 12 11 11 11 10 10 10 10 10 11 10 10 10 10 10 10 10 11 11 11 11 11 12 12 12 12 11 11 11 11 12 12 12 13 13 14 14 14 14
14 13 11 10 10 10 10 9 9 9 9 9 9 9 8 8 8 8 9 9 9 9 10 10 10 11 10 11 12 12 11 10 10 10 10 11 12 12 13 13 13 13 13
12 10 10 10 9 9 9 8 8 8 8 8 7 7 7 7 7 7 7 8 8 8 9 9 9 9 10 10 11 10 9 8 8 9 9 9 10 11 12 12 12 12 12
10 9 9 8 8 8 7 7 7 7 7 6 6 6 6 6 6 6 6 7 7 7 8 8 8 9 9 10 10 9 8 7 7 8 8 9 9 9 9 9 10 11 11
10 8 8 8 7 7 6 6 6 6 5 5 5 5 5 5 5 5 5 6 6 6 7 7 8 9 9 9 9 8 7 7 7 6 6 6 7 7 7 7 8 9 10
8 7 7 6 6 6 5 5 5 4 4 4 4 4 4 4 4 4 5 5 5 6 6 7 7 8 8 7 7 7 6 6 5 5 5 5 5 5 5 5 6 7 8
6 6 5 5 5 5 4 4 4 3 3 3 3 3 3 3 3 3 4 4 4 4 5 6 6 6 5 5 5 5 6 5 4 4 4 4 4 4 4 5 5 6 7
5 5 4 4 4 4 4 3 3 3 2 2 2 2 2 2 2 2 2 2 3 3 4 4 4 4 4 4 4 4 4 3 3 3 3 3 3 4 4 5 5 6 6
5 4 4 3 3 3 3 2 2 2 2 1 1 1 1 1 1 1 2 2 2 3 3 3 2 2 2 2 3 3 3 3 2 2 3 3 4 5 5 5 5 6 3
4 3 3 3 2 2 2 1 1 1 1 1 0 0 0 0 0 1 0 1 2 2 2 2 2 2 2 2 3 3 2 2 2 2 3 3 3 3 3 3 2 1 1
3 2 2 2 1 1 1 1 1 1 1 -0 -0 -0 -0 -0 -0 -0 -0 0 0 0 1 1 1 2 2 2 2 2 1 1 2 3 2 2 1 2 2 1 -0 -0 -1

GFSMW_925_temp_003.txt.gz
Temp
20 21 21 20 21 22 23 23 24 23 23 22 21 21 20 20 20 20 19 19 18 18 18 18 17 16 16 17 16 16 16 16 16 16 15 16 16 17 17 17 17 17 17
19 19 19 20 20 20 21 22 22 23 23 22 22 22 21 21 21 20 20 19 19 18 18 18 17 17 16 16 16 16 15 15 15 15 14 14 15 16 16 16 16 16 16
19 18 17 18 20 20 21 21 21 22 22 22 22 22 21 20 20 20 19 19 19 19 18 18 17 17 16 16 15 15 15 15 15 15 16 13 13 11 16 16 15 15 15
18 17 17 18 19 19 20 21 20 21 21 21 21 20 20 19 20 20 20 20 20 19 19 19 18 17 17 16 16 16 16 15 16 15 14 16 16 12 12 16 16 16 16
17 17 16 18 18 19 19 19 20 20 20 20 20 19 19 19 19 19 19 19 19 19 19 19 18 18 17 17 17 16 16 15 15 16 16 14 15 15 14 15 16 16 16
17 16 17 18 18 19 19 19 19 19 19 19 19 19 19 19 18 18 18 18 19 19 19 18 18 19 19 18 17 17 17 16 16 16 16 15 14 15 14 14 15 15 16
16 16 15 16 17 18 18 19 19 18 18 18 18 18 18 18 18 18 18 18 18 18 18 18 18 17 17 17 17 16 17 17 17 16 16 16 15 16 16 15 15 15 16
15 16 16 16 17 18 18 18 18 18 18 18 18 18 18 18 18 17 17 17 17 17 17 17 17 17 17 17 17 17 17 17 17 17 16 16 16 15 15 15 15 15 16
16 16 16 17 17 18 18 18 18 18 17 17 17 17 16 16 16 16 16 16 16 16 16 16 16 16 16 17 17 17 16 16 17 17 17 16 16 16 16 15 15 15 14
15 15 15 17 18 18 18 17 16 16 15 15 15 15 15 15 15 15 14 14 14 14 14 14 14 15 15 15 15 16 16 16 16 15 15 16 16 15 15 15 15 15 14
15 15 15 17 17 16 15 15 15 14 14 14 14 14 14 13 13 13 13 13 13 13 13 13 13 13 13 14 14 14 14 14 15 16 15 15 15 15 15 15 15 14 14
15 15 16 16 15 14 14 13 13 13 12 12 12 12 12 12 12 12 12 11 11 11 11 12 12 12 12 12 13 13 13 13 14 14 14 14 14 14 14 14 15 15 14
15 14 13 13 13 12 12 11 11 11 11 11 11 11 11 11 11 10 10 10 10 10 10 11 11 11 11 12 12 12 12 12 12 13 13 13 13 13 13 13 13 14 14
15 13 12 11 11 10 10 10 10 10 10 10 10 10 9 9 9 9 9 9 9 9 9 10 10 10 10 11 11 11 11 11 11 11 11 12 12 12 12 12 13 13 13
13 12 10 8 9 9 9 9 8 8 8 8 8 8 8 8 8 7 7 8 8 8 8 9 9 9 10 10 10 10 10 10 10 10 10 10 11 11 11 11 11 11 12
12 10 9 8 8 8 8 8 7 7 7 7 7 6 6 6 6 6 6 6 7 7 7 7 8 8 9 9 10 10 9 9 9 9 9 8 9 9 10 11 11 11 11
10 9 8 8 8 8 7 7 6 6 6 6 6 5 5 5 5 5 5 5 6 6 6 6 7 7 8 8 9 9 9 9 8 8 7 7 9 9 9 9 9 9 9
9 7 7 7 7 7 6 6 6 6 5 5 5 5 4 4 4 4 4 4 5 5 5 6 6 7 7 7 8 8 8 7 7 7 7 7 7 6 6 7 7 7 8
7 7 7 7 6 6 5 6 5 5 5 4 4 3 3 3 3 3 3 4 4 4 4 5 6 5 6 7 6 6 6 6 6 6 6 6 5 6 5 5 5 6 6
7 7 7 6 6 5 5 5 4 4 3 3 3 3 2 2 2 2 3 3 3 3 4 4 4 5 6 5 5 5 5 5 5 5 4 4 4 4 4 4 4 4 5
6 6 5 5 5 5 4 4 3 3 3 2 2 2 2 2 2 2 2 2 2 2 2 3 3 4 5 4 4 3 4 3 4 4 3 3 3 3 3 4 4 5 5
6 5 4 4 4 4 3 3 2 2 2 2 1 1 1 1 1 1 1 1 1 1 1 2 3 3 3 2 2 2 3 3 3 3 3 2 2 3 4 4 5 5 4
5 4 4 3 3 3 2 2 2 1 1 1 1 0 0 0 0 0 -0 0 0 0 1 2 2 1 1 1 1 2 2 3 2 2 2 2 2 3 2 2 3 3 1
4 3 3 2 2 2 2 1 1 1 1 0 0 -0 -1 -0 -1 -1 -1 -1 -1 -0 0 0 0 0 0 1 1 2 1 1 1 1 1 2 3 2 1 1 1 1 0
3 3 2 2 1 1 1 1 0 0 0 -0 -1 -1 -1 -1 -1 -1 -1 -1 -1 -1 -0 -0 -0 -0 0 1 1 1 1 1 1 1 2 1 1 1 0 0 -0 0 -0
2 2 2 1 1 1 0 0 0 -0 -0 -1 -1 -1 -1 -2 -2 -2 -2 -2 -1 -1 -1 -1 -0 -0 0 0 0 0 0 0 0 -0 0 -0 -0 -0 -0 -1 -0 -0 -0

GFSMW_925_temp_006.txt.gz
Temp
19 18 18 19 20 20 21 22 22 21 21 20 20 19 20 20 20 20 20 20 19 19 18 18 18 18 17 17 16 16 15 15 14 14 14 14 15 15 15 14 15 15 15
17 16 17 18 18 19 19 20 21 21 22 20 20 19 19 19 20 20 20 19 19 19 18 18 18 17 17 16 15 15 14 14 14 14 14 14 16 16 16 15 15 15 14
17 15 15 16 18 18 18 19 19 20 20 20 20 19 19 19 19 19 19 19 19 19 18 18 18 17 16 16 15 15 14 14 15 14 14 13 14 11 16 17 16 16 15
16 15 14 15 17 18 19 19 19 19 19 19 19 19 18 17 18 18 18 18 18 18 18 17 17 17 16 16 16 16 15 14 14 15 14 14 15 14 16 17 16 17 16
15 14 14 16 17 18 18 18 18 18 18 18 18 18 18 17 18 18 18 18 18 18 17 17 17 16 16 15 15 15 15 15 14 14 15 14 13 14 14 14 16 17 16
15 14 16 17 17 18 18 18 18 18 18 18 17 17 17 17 17 17 16 16 16 16 16 16 16 16 16 15 15 15 15 15 15 15 15 15 14 15 14 14 15 15 16
14 14 14 15 16 17 18 18 17 16 17 17 16 16 16 16 15 15 15 15 15 15 15 15 15 15 15 15 15 15 15 15 15 15 15 15 15 15 15 15 15 15 16
14 14 14 15 16 17 17 16 16 15 15 16 15 15 15 14 14 14 14 13 13 14 14 14 14 14 14 14 14 14 14 14 14 14 15 15 15 15 15 15 14 15 16
14 14 14 16 17 15 15 15 15 14 14 14 14 13 13 13 13 13 13 12 12 12 12 13 13 13 13 13 13 12 13 13 13 13 13 13 14 14 15 15 15 14 14
14 14 14 15 14 14 14 14 13 13 12 13 12 12 12 12 12 12 11 11 11 11 11 11 11 11 11 11 11 11 11 12 12 12 12 13 13 13 13 14 14 14 14
13 13 14 14 13 13 12 12 12 12 12 11 11 11 11 11 10 10 9 9 9 9 9 9 9 10 10 10 10 10 11 11 11 11 12 12 12 12 12 12 13 13 13
13 13 12 12 11 11 11 11 10 10 10 10 10 10 9 9 9 9 8 8 8 8 8 8 8 9 9 9 9 10 10 10 10 10 10 10 11 11 11 11 11 12 12
12 11 10 10 10 10 10 9 9 9 9 9 9 8 8 8 7 7 7 7 7 7 7 7 7 7 8 8 8 9 9 9 9 9 9 9 9 9 10 10 10 10 10
12 10 8 8 9 9 9 8 8 8 8 8 7 7 6 6 6 6 6 6 6 5 5 6 6 6 7 7 8 8 8 8 8 8 9 8 8 8 8 8 8 9 9
11 9 7 6 8 8 8 8 8 8 7 7 6 6 5 5 5 5 4 4 4 4 4 5 5 5 6 6 7 7 7 7 7 8 8 8 7 8 8 8 8 8 7
10 8 8 6 6 7 7 7 7 6 6 6 5 5 4 4 4 4 4 4 3 3 4 4 4 4 5 5 6 6 6 7 7 6 6 6 6 7 6 6 6 6 6
9 8 7 6 7 7 7 6 6 5 5 5 4 4 3 3 3 3 3 3 2 3 3 3 3 3 4 4 5 5 5 5 6 5 5 5 5 5 5 4 5 4 5
8 7 6 6 6 6 6 5 5 4 4 4 3 3 3 2 2 2 2 2 2 2 2 2 2 3 3 3 4 4 4 3 4 4 4 4 4 4 4 4 4 3 4
6 6 7 6 6 5 5 5 4 4 3 3 2 2 2 2 1 1 1 1 1 1 1 1 2 1 2 3 3 3 2 2 2 2 3 3 3 3 3 3 3 3 4
7 7 6 6 5 4 4 4 3 3 2 2 2 2 1 1 1 1 0 0 0 0 0 0 0 1 1 2 2 2 2 2 2 2 2 2 3 3 2 2 2 3 4
6 6 5 4 4 4 4 3 2 2 2 1 1 1 1 0 0 0 -0 -0 -1 -1 -1 -0 -0 0 1 1 1 1 1 1 2 1 1 1 1 2 2 2 3 2 2
5 5 4 4 4 3 3 2 1 1 1 1 1 0 0 -0 -1 -1 -1 -1 -1 -1 -1 -1 -1 -0 -0 -0 -0 1 1 1 1 0 0 1 1 1 2 2 2 2 1
4 4 4 3 3 2 2 1 1 1 0 0 0 -0 -0 -1 -1 -1 -2 -2 -2 -2 -2 -1 -1 -1 -1 -1 -1 0 1 -0 -0 0 -0 0 1 1 1 1 1 1 -0
3 3 3 2 2 2 1 1 0 0 -0 -0 -1 -1 -1 -1 -2 -2 -2 -2 -3 -2 -2 -2 -2 -2 -1 -1 -1 -1 -1 -1 -1 -1 -1 -1 -0 -0 -0 -0 -0 -1 -1
3 3 2 1 1 1 1 1 0 -0 -1 -1 -1 -2 -2 -2 -2 -2 -2 -2 -2 -2 -2 -2 -2 -2 -2 -1 -1 -1 -1 -2 -2 -1 -2 -2 -2 -2 -2 -1 -1 -1 -1
2 2 1 1 0 0 0 0 0 -0 -1 -2 -2 -2 -2 -2 -2 -3 -3 -3 -3 -2 -2 -2 -2 -2 -2 -2 -1 -1 -2 -2 -2 -2 -3 -3 -3 -3 -2 -2 -2 -1 -1

GFSMW_925_temp_009.txt.gz
Temp
16 16 17 17 18 19 19 19 20 20 20 19 19 18 19 19 19 19 19 19 19 18 18 18 18 17 17 17 16 15 14 14 14 12 13 14 14 14 14 14 14 14 14
15 14 15 17 17 17 18 19 19 19 19 18 18 18 18 18 18 18 18 18 18 18 17 17 17 16 15 15 15 14 13 13 14 13 13 13 16 16 16 15 15 16 16
15 13 13 15 16 16 17 18 18 18 18 18 18 18 18 18 17 17 17 17 17 17 16 16 15 15 14 14 14 14 13 13 14 14 13 13 14 13 17 17 16 16 16
14 14 13 14 15 16 17 17 17 17 17 18 17 17 16 16 15 16 16 16 16 16 16 16 15 15 15 14 14 14 13 13 13 14 14 14 14 14 15 17 16 16 15
14 13 13 15 16 17 17 17 17 17 17 17 17 17 16 15 15 15 16 16 16 15 15 15 15 15 14 14 14 14 13 14 14 14 14 14 13 13 13 14 15 16 16
13 13 14 15 16 16 16 16 16 16 16 16 15 15 15 14 14 14 14 14 14 14 14 14 14 14 13 13 13 13 13 13 13 13 13 14 14 14 14 14 14 15 15
13 13 13 14 15 15 15 15 15 14 14 15 14 14 13 13 13 12 12 12 12 12 12 12 12 12 12 12 12 12 12 12 12 12 12 12 13 13 13 14 14 14 15
12 13 13 14 14 14 14 14 14 13 13 13 13 13 12 12 12 12 11 11 10 10 10 10 10 10 10 10 10 10 10 11 11 11 11 11 11 12 12 13 12 13 13
12 12 13 13 13 13 13 13 13 12 12 12 12 11 11 11 10 10 10 9 9 9 9 9 9 9 9 9 9 9 9 10 10 10 10 10 10 10 11 11 12 12 12
13 12 12 12 12 12 12 12 12 11 11 11 11 10 9 9 9 9 9 8 8 8 8 7 7 7 8 8 8 8 8 9 9 9 9 9 9 10 10 10 10 11 11
12 12 10 11 11 11 11 11 11 11 10 10 9 9 9 8 8 7 7 7 7 6 6 6 6 6 6 6 7 7 8 8 8 8 8 8 8 9 9 9 9 9 9
12 11 10 10 10 9 10 10 9 9 9 9 9 8 7 7 7 6 6 6 5 5 5 5 5 5 5 5 6 6 7 6 6 7 7 7 8 8 8 8 8 8 8
11 9 8 8 8 9 8 8 8 8 8 8 7 7 6 6 5 5 5 5 4 4 4 4 4 4 4 4 5 6 5 5 5 6 6 6 7 7 6 6 6 7 7
11 9 8 7 8 8 8 8 7 7 7 7 6 6 5 5 4 4 4 4 4 3 3 3 3 3 3 4 4 4 4 4 5 5 6 6 6 6 5 5 5 5 5
10 8 7 6 7 7 7 7 7 6 6 6 5 4 4 4 3 3 3 3 3 3 3 3 3 2 2 3 3 3 4 4 4 4 4 5 4 4 5 5 4 4 4
9 8 7 5 6 6 6 6 5 5 5 5 4 4 3 3 3 3 3 3 2 2 2 1 1 1 1 2 3 3 3 3 3 3 3 3 3 3 4 4 4 4 4
8 7 6 6 6 6 5 5 5 5 4 4 3 3 2 2 2 2 2 1 1 1 0 0 0 1 1 1 2 2 2 2 2 2 1 2 2 2 2 3 3 3 3
7 6 6 6 6 5 5 5 4 4 3 3 2 2 1 1 1 1 0 0 -0 -0 -0 -0 -0 -0 -0 0 1 2 1 1 1 1 1 1 1 2 2 2 2 2 2
6 6 6 6 5 5 5 4 4 3 2 2 1 1 1 1 1 0 -0 -0 -1 -1 -1 -1 -1 -1 -1 -0 0 1 1 0 1 1 1 1 1 1 2 2 1 1 1
7 6 6 5 5 4 4 3 2 2 1 1 1 1 1 0 0 -0 -1 -1 -1 -2 -2 -2 -2 -2 -1 -1 -0 -0 0 0 0 -1 -1 0 0 1 1 1 1 0 1
6 6 5 4 3 3 3 2 2 1 1 1 1 1 0 -0 -1 -1 -1 -1 -2 -2 -2 -2 -2 -2 -2 -1 -1 -0 0 0 -1 -1 -0 -0 -0 0 1 1 0 -0 1
5 5 4 4 3 3 2 2 1 1 1 0 0 -0 -0 -1 -1 -1 -2 -2 -3 -3 -3 -3 -3 -2 -2 -2 -2 -1 -0 -0 -1 -1 -1 -1 -0 -0 -0 -0 -0 0 0
4 4 4 3 2 2 2 1 1 0 0 -0 -0 -1 -1 -1 -2 -2 -2 -3 -3 -3 -3 -3 -3 -2 -2 -2 -2 -2 -1 -1 -1 -2 -2 -1 -1 -1 -2 -2 -1 -1 -2
4 3 3 2 2 2 1 1 0 -0 -1 -1 -1 -1 -2 -2 -2 -2 -3 -3 -4 -3 -3 -3 -2 -3 -3 -3 -2 -3 -2 -2 -2 -3 -2 -3 -3 -3 -3 -4 -3 -3 -3
3 3 2 1 1 1 1 0 0 -0 -1 -1 -2 -2 -2 -3 -3 -3 -3 -3 -3 -3 -3 -3 -3 -3 -3 -3 -2 -2 -2 -2 -2 -2 -3 -4 -4 -4 -4 -4 -3 -3 -3
2 2 1 0 0 0 0 0 -0 -1 -2 -2 -3 -3 -3 -3 -3 -4 -4 -4 -3 -3 -3 -3 -3 -3 -3 -2 -2 -2 -2 -2 -2 -3 -4 -5 -4 -5 -5 -5 -4 -4 -4

GFSMW_925_temp_012.txt.gz
Temp
14 14 15 17 17 18 18 19 19 19 19 17 17 17 17 18 17 17 16 16 16 16 16 15 15 15 15 15 14 14 13 13 13 12 13 13 15 15 15 16 15 15 16
13 13 14 16 16 16 17 18 18 19 18 17 17 17 17 16 16 16 16 16 16 15 15 15 15 15 14 14 14 13 13 13 13 12 13 13 15 16 17 17 16 16 15
13 12 12 14 15 15 16 17 17 17 18 18 17 17 17 16 16 15 15 15 15 15 15 15 15 14 14 14 13 13 12 13 13 13 12 13 15 15 16 17 16 16 16
14 13 13 13 14 15 16 16 16 16 16 17 17 16 14 13 13 14 14 14 14 14 14 14 13 13 13 13 12 12 12 12 13 13 14 13 13 14 14 16 16 16 16
12 12 12 13 14 15 15 15 15 15 15 15 15 15 14 13 13 13 14 13 13 13 13 13 13 12 12 12 11 11 11 11 11 11 11 12 12 13 13 13 14 14 15
12 12 13 13 14 14 14 15 15 14 14 14 14 13 13 12 12 12 12 11 11 11 11 11 11 10 10 10 10 10 10 10 10 10 9 10 10 11 11 11 12 12 13
11 11 11 12 13 13 13 14 14 12 13 13 12 12 11 11 10 10 9 9 9 9 9 9 9 9 9 9 9 9 9 9 9 9 9 9 9 9 10 10 11 11 12
11 11 11 11 12 12 12 13 13 12 12 11 11 11 11 10 9 9 9 8 8 8 8 8 8 8 8 7 7 7 7 8 8 8 8 8 8 8 9 9 9 10 10
11 11 10 11 11 11 11 11 11 11 10 10 10 10 10 9 9 8 8 8 8 7 7 7 6 6 6 6 6 6 6 7 7 7 7 7 7 7 7 8 9 8 8
11 10 10 10 10 10 10 10 10 10 10 10 9 9 8 8 8 8 7 6 6 6 5 5 5 5 5 5 5 5 5 6 6 6 5 6 6 6 7 7 7 7 8
11 10 9 9 9 10 10 9 9 9 9 8 8 8 8 7 6 6 6 5 5 5 4 4 4 4 4 4 4 4 4 4 4 4 5 5 5 6 6 6 6 6 6
11 9 8 8 8 8 8 8 8 8 7 7 7 6 6 6 6 5 4 4 4 4 4 4 3 3 3 3 3 3 3 3 3 3 4 4 5 5 5 5 4 5 5
10 8 7 7 7 7 7 7 7 7 7 6 6 6 5 5 4 4 4 4 4 4 4 3 2 2 2 2 2 2 2 2 2 3 3 3 4 4 4 3 3 5 4
10 8 7 6 7 7 7 7 6 6 6 6 5 5 4 4 3 3 3 3 3 2 2 2 2 2 1 2 2 2 2 2 2 2 2 2 2 2 2 3 3 4 3
9 8 7 5 6 6 6 6 6 6 5 5 4 3 3 3 3 3 2 2 2 2 2 1 2 1 0 1 1 1 2 2 1 1 1 1 1 1 2 2 2 2 2
9 7 6 5 5 5 6 5 5 5 5 4 3 3 3 2 2 2 2 2 1 1 1 0 -0 -0 -0 0 1 1 1 1 1 0 0 0 1 1 1 1 2 2 2
8 7 5 5 5 5 5 5 5 4 4 3 3 2 2 1 1 1 1 1 0 0 -0 -0 -1 -1 -1 -1 -0 0 0 -0 -0 -0 -0 -0 0 -0 0 0 1 1 2
7 5 5 5 5 5 5 4 4 3 3 3 2 1 1 1 1 1 0 -0 -0 -1 -1 -1 -1 -2 -2 -1 -1 -0 -1 -1 -0 -0 -0 -0 -1 -0 0 0 -1 -1 0
5 6 6 6 5 4 4 4 3 3 2 1 1 1 1 0 -0 -0 -0 -1 -1 -1 -2 -2 -2 -3 -3 -2 -2 -1 -1 -1 -1 -1 -1 -1 -1 -0 -0 -1 -1 -0 -1
6 5 5 5 4 4 4 3 3 2 1 1 1 1 0 -0 -0 -0 -1 -1 -1 -2 -3 -3 -3 -3 -3 -3 -2 -1 -1 -1 -1 -1 -2 -1 -1 -0 -1 -0 -1 -2 -2
5 5 5 4 4 4 3 2 1 1 1 0 0 0 0 -0 -1 -1 -1 -2 -2 -3 -3 -4 -3 -3 -3 -3 -2 -2 -1 -1 -2 -2 -1 -1 -2 -1 -1 -1 -2 -2 -1
4 5 4 3 3 3 2 1 1 0 0 0 0 -0 -0 -1 -1 -2 -2 -2 -3 -4 -4 -4 -4 -3 -3 -3 -3 -2 -1 -1 -2 -1 -2 -2 -3 -2 -2 -2 -3 -2 -2
4 4 4 3 2 2 1 1 0 0 -0 -0 -0 -0 -1 -1 -2 -2 -3 -4 -4 -4 -4 -4 -4 -3 -3 -3 -3 -3 -2 -2 -1 -2 -3 -3 -3 -3 -4 -4 -3 -4 -4
3 3 3 2 2 1 1 0 0 -0 -0 -1 -1 -1 -2 -2 -3 -3 -3 -4 -4 -4 -4 -4 -3 -3 -3 -4 -4 -4 -3 -3 -2 -3 -4 -4 -4 -4 -4 -5 -5 -5 -5
3 3 2 1 1 1 1 0 -0 -1 -1 -2 -2 -2 -3 -3 -3 -4 -4 -4 -4 -4 -3 -3 -3 -4 -4 -4 -3 -3 -2 -2 -3 -2 -3 -4 -5 -5 -5 -5 -5 -6 -5
2 2 1 1 1 0 0 0 -0 -1 -2 -3 -3 -3 -4 -3 -4 -4 -5 -5 -4 -4 -3 -3 -3 -3 -3 -3 -3 -3 -3 -3 -3 -3 -4 -5 -5 -6 -6 -6 -6 -6 -6

GFSMW_925_temp_015.txt.gz
Temp
14 13 14 16 17 18 18 18 18 17 17 17 17 16 14 14 15 15 15 15 15 15 15 14 14 14 13 13 12 12 13 13 13 12 12 14 14 15 15 15 14 14 16
15 13 13 14 15 16 16 17 17 17 17 17 16 15 14 14 14 14 14 14 15 14 14 14 14 14 13 12 12 12 12 12 13 13 13 14 16 17 15 15 15 15 15
15 14 13 12 14 14 15 16 16 17 17 16 16 16 15 15 14 13 13 13 13 13 13 13 13 13 12 11 11 10 11 11 12 12 13 13 14 13 14 15 15 15 14
14 14 13 13 13 13 15 15 16 16 16 16 16 15 12 11 10 11 12 12 12 12 12 12 11 11 10 9 9 10 9 9 10 11 12 11 11 12 13 15 14 14 15
14 13 13 12 12 13 14 14 14 14 14 14 14 13 12 11 12 12 12 12 11 11 11 10 10 10 9 8 8 8 8 8 8 9 9 9 10 11 12 11 13 12 13
13 13 12 12 12 12 13 13 13 12 13 13 13 12 12 11 11 10 9 8 8 8 8 9 8 7 7 7 7 7 7 7 7 8 8 8 9 9 10 10 10 11 11
13 13 12 11 11 12 12 12 12 11 12 11 11 11 10 10 9 8 8 8 7 7 7 7 7 6 6 6 6 6 6 6 6 6 7 7 7 7 8 8 9 10 10
13 13 12 11 10 11 11 11 11 10 10 10 10 10 9 9 8 8 7 6 6 6 6 6 6 6 6 5 5 5 5 5 5 5 5 6 6 6 7 7 7 8 9
12 12 11 10 10 10 10 10 10 9 9 9 9 9 8 8 7 7 7 6 6 5 6 6 6 6 5 4 4 4 5 4 5 5 4 4 5 5 5 6 6 7 7
12 11 10 9 9 9 9 9 9 8 8 8 8 8 8 8 7 7 6 6 6 5 5 5 4 4 3 3 3 3 4 4 4 4 4 4 4 4 5 5 5 6 5
12 11 10 8 8 8 8 8 8 8 8 8 7 7 6 6 6 6 5 5 5 4 3 3 3 2 2 2 2 3 3 3 3 3 3 3 4 3 3 4 4 4 4
12 10 9 8 7 7 7 7 7 7 7 7 7 6 6 6 6 5 4 4 3 3 3 3 2 2 2 2 2 2 2 2 2 2 2 2 2 2 2 2 3 3 3
10 9 8 8 7 6 6 7 7 7 6 6 6 6 5 5 4 4 3 3 3 3 3 2 1 1 1 1 1 1 1 2 2 2 2 1 1 1 1 1 2 2 2
10 9 8 7 6 6 6 6 6 6 6 6 6 5 5 4 3 3 3 3 2 2 2 1 0 0 -0 -0 1 1 1 1 1 1 1 1 1 1 1 1 2 2 2
10 9 8 7 6 5 5 6 6 5 5 5 4 4 3 2 3 3 2 2 2 1 0 0 -0 -1 -1 0 0 1 1 1 0 0 0 0 0 0 1 1 1 1 1
10 9 7 6 5 5 5 5 5 5 5 4 3 2 2 2 2 2 1 1 1 0 0 -1 -1 -1 -1 -1 -0 -0 -0 -0 -0 -0 -0 -0 -0 -0 0 -0 0 1 0
10 8 7 6 5 5 5 5 5 4 4 3 2 2 1 2 1 1 1 0 -0 -0 -1 -2 -2 -2 -2 -2 -1 -1 -1 -1 -1 -1 -1 -1 -1 -1 -1 -1 -0 -1 -0
8 7 6 5 5 5 5 5 4 3 3 2 2 1 1 1 1 1 0 -0 -1 -2 -2 -2 -2 -2 -3 -3 -2 -2 -1 -1 -1 -1 -1 -1 -1 -1 -1 -0 -2 -1 -1
6 5 5 5 4 5 4 4 3 3 2 1 1 0 0 0 0 -0 -0 -1 -2 -2 -2 -2 -3 -3 -3 -3 -3 -2 -1 -1 -1 -1 -1 -2 -1 -1 -1 -2 -1 -1 -1
5 4 5 4 4 4 4 3 2 2 1 1 0 0 0 -0 -0 -1 -1 -1 -2 -3 -3 -3 -4 -4 -3 -4 -3 -2 -2 -1 -1 -2 -2 -1 -1 -1 -2 -1 -2 -2 -2
4 5 5 4 4 3 3 2 2 1 1 0 0 0 -0 -0 -1 -1 -1 -2 -3 -3 -4 -4 -4 -4 -4 -3 -3 -2 -2 -2 -2 -3 -2 -2 -2 -2 -2 -2 -3 -3 -2
4 4 3 3 3 3 2 1 1 1 0 -0 -0 -0 -0 -1 -1 -1 -2 -3 -4 -4 -4 -4 -4 -3 -3 -3 -3 -2 -2 -2 -2 -2 -2 -2 -2 -2 -2 -3 -3 -3 -3
3 3 4 3 2 2 1 1 0 -0 -0 -0 -0 -1 -1 -1 -1 -2 -3 -4 -4 -4 -4 -4 -3 -3 -3 -3 -3 -3 -3 -2 -2 -2 -3 -3 -2 -2 -4 -4 -4 -4 -5
3 3 3 2 1 1 1 0 -0 -1 -1 -1 -1 -1 -1 -2 -3 -3 -4 -5 -5 -5 -4 -4 -3 -4 -4 -4 -4 -4 -4 -3 -3 -4 -3 -3 -3 -4 -4 -5 -5 -5 -6
3 3 2 2 1 0 0 -0 -0 -1 -1 -1 -1 -2 -3 -3 -4 -4 -5 -5 -4 -4 -3 -3 -3 -4 -4 -4 -3 -3 -3 -3 -4 -3 -4 -4 -5 -5 -5 -5 -6 -6 -6
2 2 1 1 -0 -0 -0 -1 -1 -1 -2 -2 -3 -3 -4 -4 -5 -5 -5 -5 -5 -4 -4 -4 -4 -4 -4 -4 -3 -3 -3 -4 -4 -4 -5 -6 -5 -6 -6 -6 -6 -6 -6

GFSMW_925_temp_018.txt.gz
Temp
19 18 18 18 18 18 18 18 18 18 19 19 19 18 17 16 15 15 15 15 14 14 15 15 15 15 15 15 15 15 15 16 16 16 16 16 16 18 18 18 17 18 18
20 19 18 18 18 18 18 17 17 17 17 17 17 17 16 15 14 14 13 14 13 13 13 13 13 13 14 14 13 13 13 14 14 15 14 17 17 18 16 15 16 17 17
20 20 19 17 17 17 16 16 16 16 16 16 16 16 15 15 15 14 13 12 12 12 12 12 12 12 12 12 12 12 12 12 12 13 13 14 15 15 14 15 15 16 16
20 20 19 17 16 15 15 15 15 15 15 16 16 16 15 14 13 13 13 12 11 11 11 11 11 11 11 11 11 11 11 11 12 11 12 12 12 12 13 14 14 14 14
20 19 18 16 15 14 14 14 14 14 14 14 14 14 14 13 13 12 12 12 11 10 9 9 9 9 10 9 9 9 10 10 10 10 10 10 11 11 12 12 13 12 12
19 18 16 15 14 13 14 13 13 13 13 13 13 12 12 12 12 11 12 11 11 10 9 9 9 9 8 8 8 8 8 8 8 8 9 9 10 10 10 11 11 12 11
18 17 17 16 15 14 13 13 13 12 12 12 11 11 11 11 11 11 10 10 10 9 8 8 8 8 7 7 7 7 7 7 7 7 8 8 8 8 8 9 11 11 10
19 18 17 16 14 13 13 13 12 11 11 11 10 10 10 10 10 9 9 9 8 8 7 7 7 7 7 7 7 6 6 7 7 7 7 7 7 7 7 7 8 8 8
18 18 16 15 14 13 12 12 11 10 10 10 10 9 9 9 8 8 8 7 7 6 6 6 6 6 6 6 6 6 6 6 6 6 6 6 6 6 6 6 6 7 6
18 17 16 14 13 12 11 11 11 10 9 9 9 8 8 8 7 7 7 6 6 6 6 6 5 6 5 5 5 5 5 5 5 5 5 5 5 5 5 5 5 5 6
18 17 16 14 12 11 11 10 10 9 9 8 8 8 7 7 7 6 6 5 5 5 5 5 5 5 5 5 5 5 5 4 5 5 5 4 4 4 4 4 4 4 4
18 16 15 13 12 11 10 10 9 9 8 8 7 7 6 6 6 6 5 5 5 4 4 4 4 4 4 4 4 4 4 4 4 4 4 4 4 3 3 3 3 3 4
17 15 14 13 12 11 10 10 9 8 7 7 7 6 6 6 5 5 4 4 4 4 3 3 3 3 3 3 3 3 3 3 3 3 3 3 2 2 2 2 2 3 3
16 15 14 13 12 11 10 9 8 7 6 6 6 6 5 4 4 4 3 3 3 3 3 2 2 2 2 2 2 2 2 2 2 2 2 2 2 2 1 1 2 1 1
16 14 14 13 11 10 9 8 7 6 6 6 5 4 4 3 3 3 3 3 2 2 2 2 2 2 2 2 1 1 1 1 1 2 1 1 1 1 1 1 1 -0 1
16 15 13 13 11 10 9 7 6 6 5 5 4 3 3 3 3 2 2 2 2 2 1 2 2 2 1 1 -0 -1 -0 0 1 1 1 1 1 1 1 0 1 1 0
16 14 13 11 10 9 8 7 6 5 5 4 3 3 2 2 2 2 2 2 2 1 2 1 1 1 1 -0 -1 -1 -1 0 1 1 1 1 1 0 -0 0 0 0 -1
14 13 11 9 8 7 7 6 5 5 4 4 3 2 2 2 2 2 2 2 1 1 1 1 1 0 0 -1 -2 -2 -1 -0 0 0 0 0 -0 -0 -0 0 -0 -1 -0
13 11 10 8 7 6 6 5 5 3 3 3 3 2 1 1 1 2 1 1 1 1 1 0 -0 -0 -1 -1 -2 -2 -1 -0 -0 -0 -0 -1 -1 -0 -0 -1 -2 -2 -1
9 8 7 6 7 6 5 5 4 3 4 2 1 1 1 1 1 1 1 0 0 0 -0 -0 -0 -1 -1 -1 -2 -2 -1 -1 -1 -1 -1 -1 -1 -1 -2 -2 -1 -2 -2
7 6 6 7 6 5 4 3 3 4 2 1 1 1 1 1 0 0 0 -0 -0 -0 -0 -1 -1 -1 -1 -1 -2 -2 -2 -1 -2 -2 -1 -1 -1 -2 -2 -2 -2 -2 -2
6 6 6 6 5 4 3 3 3 1 1 0 0 1 0 0 -0 -0 -0 -0 -1 -1 -1 -1 -1 -1 -1 -1 -2 -2 -2 -2 -2 -2 -2 -2 -2 -2 -2 -3 -3 -3 -3
6 6 6 5 3 2 3 3 2 0 0 0 1 0 0 0 -0 -0 -1 -1 -1 -1 -1 -1 -1 -1 -2 -2 -2 -2 -2 -2 -2 -2 -2 -2 -2 -3 -3 -3 -3 -4 -4
6 5 5 4 3 2 1 1 0 -0 -0 0 0 0 -0 -1 -1 -1 -1 -1 -1 -2 -2 -2 -2 -2 -2 -2 -2 -3 -3 -2 -2 -3 -4 -3 -3 -3 -4 -4 -4 -4 -5
5 5 5 5 4 1 1 -0 0 -1 -0 -0 0 -0 -0 -1 -1 -1 -2 -2 -3 -3 -3 -3 -3 -3 -3 -3 -3 -3 -3 -3 -3 -3 -3 -3 -4 -5 -5 -4 -5 -5 -5
4 4 4 3 1 1 0 -0 -1 -1 -1 -1 -0 -1 -1 -1 -2 -2 -2 -2 -3 -3 -4 -4 -4 -4 -3 -3 -3 -3 -3 -3 -4 -4 -4 -4 -5 -5 -5 -5 -5 -5 -6

GFSMW_925_temp_021.txt.gz
Temp
23 22 21 21 21 21 21 21 21 21 21 21 20 19 18 17 16 16 16 16 15 15 15 15 15 15 15 15 15 15 14 15 15 15 15 15 15 17 17 15 15 16 17
23 22 21 21 21 20 20 20 20 20 20 19 19 18 17 16 15 15 15 15 14 14 14 14 14 14 14 14 13 13 13 13 13 14 14 15 15 16 14 14 15 15 15
23 22 21 20 20 19 19 18 18 18 18 17 17 17 16 16 16 15 14 14 13 13 12 12 12 12 12 12 12 12 12 12 12 13 13 13 13 13 13 13 14 14 14
23 22 21 19 18 18 18 18 18 18 18 18 18 18 17 16 15 15 14 14 12 12 11 11 11 11 11 11 10 11 11 11 11 11 11 11 11 11 11 13 12 13 13
23 21 20 19 17 17 16 16 16 16 16 17 16 16 15 15 14 14 14 13 13 12 10 10 10 10 10 9 9 9 9 10 10 9 10 10 11 11 11 10 11 11 11
22 20 18 17 16 16 16 16 15 15 15 15 15 15 14 14 14 13 13 13 12 11 10 9 9 9 9 8 8 8 8 8 8 8 8 9 10 9 9 9 9 9 10
21 19 18 18 16 16 15 15 15 14 14 14 14 13 13 13 12 12 12 12 11 10 9 9 9 9 8 8 8 7 7 7 7 7 8 8 8 8 8 8 8 8 8
21 19 19 18 16 16 15 15 14 14 13 13 12 12 12 11 11 11 10 10 9 9 8 8 8 8 8 8 7 7 7 7 7 7 7 7 7 7 7 7 7 7 7
20 20 19 18 16 16 15 14 13 13 12 12 12 11 11 10 10 10 9 9 8 8 8 7 7 7 7 7 7 7 7 7 7 7 6 6 6 6 6 6 6 6 5
21 20 19 17 16 15 14 14 13 12 12 11 11 10 10 9 9 9 8 8 8 7 7 7 7 7 7 6 6 6 6 6 6 6 6 6 6 5 5 5 5 5 5
20 19 19 17 15 14 13 13 12 11 11 11 10 10 9 9 9 8 8 7 7 7 6 6 6 6 6 6 5 5 5 5 5 5 5 5 5 5 5 4 4 4 4
20 19 18 16 15 14 13 13 12 11 10 10 9 9 8 8 8 7 7 6 6 6 6 5 5 5 5 5 4 4 4 4 4 4 4 4 4 4 3 3 3 3 3
20 19 18 16 15 14 13 12 11 10 10 9 9 8 8 7 7 7 6 6 5 5 5 5 4 4 4 4 4 4 3 3 3 3 3 3 3 3 3 2 2 2 2
19 18 17 16 15 14 13 12 11 10 9 8 8 7 7 6 6 5 5 5 5 4 4 4 4 3 4 3 3 3 2 2 2 2 2 2 2 2 2 1 1 1 1
19 18 17 16 15 14 12 11 10 9 8 8 7 6 5 5 5 5 4 4 4 4 4 3 3 3 3 3 2 1 1 0 1 1 2 2 2 2 2 2 1 0 -0
19 18 17 16 15 13 12 10 9 8 7 7 6 5 5 5 4 4 4 4 4 4 3 3 3 3 3 2 2 1 -0 -0 -0 1 1 1 1 2 1 1 1 1 0
19 18 17 16 14 12 11 10 8 7 7 6 5 5 4 4 4 4 4 4 4 3 3 3 3 3 2 2 1 -0 -1 -1 0 1 1 1 1 1 0 -0 0 0 0
19 17 16 14 12 11 10 9 7 7 6 5 5 4 4 4 4 3 4 3 3 3 3 3 2 2 1 1 0 -1 -1 -0 -0 0 0 0 0 -0 -0 -0 -2 -2 -2
17 15 14 12 10 9 8 7 7 5 5 5 5 4 3 3 3 3 3 3 3 2 2 2 1 1 1 0 -0 -1 -1 -1 -1 -0 -0 -1 -1 -1 -0 -1 -2 -2 -2
13 12 11 9 9 8 7 7 6 5 5 4 4 3 3 3 3 3 2 2 2 2 1 1 1 1 1 0 -0 -0 -1 -1 -1 -1 -1 -1 -1 -1 -1 -2 -1 -2 -2
10 9 9 9 8 7 7 6 5 5 4 3 3 3 3 3 2 2 2 2 1 1 1 1 1 1 1 0 -0 -1 -1 -1 -1 -2 -2 -1 -1 -2 -2 -1 -2 -2 -3
8 9 9 7 7 6 6 5 5 3 3 2 2 2 2 2 2 2 2 1 1 1 1 1 0 0 0 -0 -1 -1 -1 -1 -2 -3 -2 -2 -3 -2 -2 -2 -3 -3 -3
8 8 8 7 6 4 5 5 4 3 2 2 3 2 2 2 2 1 1 1 1 1 0 -0 -0 -1 -1 -2 -2 -2 -2 -2 -2 -2 -2 -3 -3 -3 -3 -3 -3 -3 -4
8 8 7 6 5 3 3 3 2 2 2 2 2 2 2 2 1 1 1 0 0 -1 -1 -1 -2 -2 -2 -2 -2 -3 -3 -3 -3 -3 -4 -3 -3 -3 -4 -4 -4 -4 -4
7 7 7 6 5 4 3 2 1 1 1 2 2 2 1 1 1 1 0 -0 -1 -1 -2 -2 -3 -3 -3 -3 -3 -3 -3 -3 -4 -3 -3 -4 -4 -5 -5 -5 -5 -5 -5
6 6 6 6 4 3 3 2 1 0 1 1 1 1 0 0 0 0 -0 -0 -1 -1 -2 -2 -2 -3 -3 -3 -3 -3 -3 -4 -3 -4 -4 -5 -5 -5 -5 -5 -5 -6 -6

GFSMW_925_temp_024.txt.gz
Temp
20 22 21 21 21 21 21 20 20 20 20 20 19 17 16 16 16 15 15 15 15 14 15 14 14 13 13 13 13 12 12 12 12 12 12 13 14 15 13 13 14 14 14
19 20 21 21 20 20 20 20 20 20 20 19 18 17 16 15 15 14 14 14 14 13 13 13 12 12 12 12 11 11 11 11 11 11 11 8 11 12 12 12 13 12 13
19 19 18 19 19 19 19 18 18 18 18 17 17 16 16 15 15 14 13 13 13 12 12 12 11 11 11 10 10 10 10 10 10 10 10 7 8 9 11 11 12 12 12
19 18 17 18 18 18 18 18 18 18 17 17 17 16 15 15 14 14 14 13 12 12 11 10 10 10 10 9 9 9 9 9 9 9 9 9 9 7 8 10 9 10 10
19 17 16 17 17 17 17 17 17 17 17 17 16 15 15 14 14 14 13 13 12 11 10 10 9 9 9 8 8 8 8 8 7 8 8 7 8 8 7 6 7 7 8
18 16 17 17 16 16 16 15 15 15 15 15 15 15 14 14 13 13 12 12 11 10 9 9 9 8 8 8 8 8 7 7 7 7 7 7 6 6 6 6 6 6 7
17 16 14 14 15 15 15 15 14 14 14 13 13 13 12 12 12 11 11 10 10 9 8 8 8 8 8 7 7 7 7 7 7 7 7 7 7 6 6 6 5 5 6
17 15 14 15 15 15 15 14 14 13 13 12 12 12 11 11 10 10 10 9 9 8 8 7 7 7 7 7 7 7 6 6 6 6 6 6 6 6 6 5 4 4 4
16 16 15 15 15 15 15 14 13 12 12 12 11 11 10 10 10 9 9 8 8 8 7 7 7 7 6 6 6 6 6 6 5 5 5 5 5 5 5 5 4 4 3
17 16 15 15 15 15 14 13 12 12 12 11 11 10 9 9 9 8 8 7 7 7 7 6 6 6 6 5 5 5 5 4 5 4 4 4 4 4 4 4 3 3 2
17 16 15 15 15 14 14 13 12 11 11 10 10 9 9 9 8 8 7 7 7 6 6 6 5 5 5 5 4 4 4 4 4 3 3 3 3 3 3 3 2 2 2
17 16 15 14 14 13 13 12 11 11 10 10 9 8 8 8 8 7 6 6 6 5 5 5 5 4 4 4 4 3 3 3 2 2 2 2 2 2 2 2 2 1 1
16 15 14 13 13 13 13 12 11 10 10 9 9 8 7 7 6 6 6 5 5 5 4 4 4 4 3 3 3 3 3 2 1 0 0 1 1 1 2 1 1 1 1
17 15 14 12 13 13 13 12 10 9 9 8 8 7 6 6 5 5 5 5 4 4 4 4 3 3 3 3 3 3 2 1 -0 -1 -0 -0 0 1 1 1 1 1 0
16 15 13 12 13 13 12 11 10 9 8 7 7 6 6 5 5 4 4 4 4 4 4 3 3 3 3 3 3 2 1 0 -1 -1 -1 -0 0 1 1 1 1 0 0
16 15 14 12 12 12 11 10 9 8 8 7 6 5 5 5 4 4 4 4 4 4 3 3 3 3 3 2 2 2 1 -0 -1 -2 -1 -1 -0 0 0 0 0 0 -0
16 15 13 12 12 12 10 9 8 7 7 6 5 5 5 4 4 4 3 3 3 3 3 3 2 2 1 1 1 1 0 -0 -1 -1 -1 -1 -1 -1 -1 -1 -1 -2 -2
15 14 12 12 12 11 10 8 7 7 6 5 5 5 4 4 3 3 3 3 3 2 2 2 2 1 1 1 1 1 0 -1 -1 -1 -1 -1 -1 -2 -1 -1 -2 -3 -2
12 12 12 11 10 9 8 7 7 6 5 5 5 4 3 3 3 3 3 2 2 2 2 1 1 1 1 1 1 1 -0 -1 -1 -1 -1 -2 -2 -2 -1 -1 -3 -3 -3
11 10 10 9 9 8 7 7 6 5 5 5 4 3 3 3 3 2 2 2 1 1 1 1 1 1 0 0 0 0 -0 -1 -1 -2 -3 -3 -2 -1 -2 -2 -2 -3 -3
9 9 9 8 8 7 7 6 5 5 4 3 3 3 3 2 2 2 2 1 1 1 1 0 0 -0 -0 -0 -1 -1 -1 -1 -2 -3 -3 -3 -2 -2 -2 -2 -3 -3 -3
8 8 7 7 7 7 6 5 5 4 3 3 2 2 2 2 2 2 1 1 1 0 0 -0 -1 -1 -2 -2 -2 -2 -2 -2 -3 -3 -3 -3 -3 -2 -3 -3 -3 -3 -3
8 7 6 6 6 5 5 5 3 3 2 2 2 2 2 2 2 1 1 1 0 -0 -1 -2 -2 -3 -3 -3 -3 -3 -2 -3 -3 -3 -3 -3 -3 -3 -4 -4 -4 -4 -5
7 7 6 5 4 4 4 4 3 2 2 2 2 2 2 1 1 0 1 0 -0 -1 -1 -2 -2 -3 -3 -3 -3 -3 -3 -3 -4 -4 -4 -4 -4 -5 -5 -5 -5 -6 -6
7 7 6 4 4 3 3 2 2 2 1 1 1 1 1 0 0 0 0 -0 -0 -1 -1 -2 -2 -2 -3 -2 -2 -2 -2 -3 -4 -3 -5 -5 -5 -6 -6 -6 -6 -6 -6
7 6 6 5 4 3 2 2 1 1 1 0 0 -0 -0 -1 -1 -1 -1 -1 -1 -2 -2 -2 -2 -2 -2 -2 -2 -3 -3 -4 -4 -5 -5 -6 -6 -6 -6 -6 -7 -7 -7

GFSMW_925_temp_027.txt.gz
Temp
17 20 20 21 20 20 20 20 20 20 20 19 18 17 16 16 16 16 15 15 15 15 15 14 14 13 13 12 12 11 11 11 10 11 10 12 13 12 13 13 12 13 11
16 17 19 19 19 19 19 19 19 19 19 18 17 16 15 15 15 14 14 14 14 14 14 13 12 12 12 11 10 10 9 10 9 8 8 6 9 11 10 10 11 10 10
17 15 15 17 18 17 18 18 18 18 18 17 16 15 15 14 14 13 13 13 13 13 12 12 11 11 10 10 9 9 8 8 8 8 8 5 5 7 9 9 10 9 9
17 16 14 15 17 17 17 17 18 17 17 17 16 15 14 14 13 13 12 12 12 11 11 10 10 9 9 9 8 8 8 7 7 7 8 7 6 4 5 8 7 7 7
17 15 14 15 16 17 16 16 17 17 16 16 15 15 14 14 13 13 12 11 11 11 10 9 9 8 8 8 8 7 7 7 7 6 6 6 6 6 4 4 5 6 6
15 14 14 15 15 15 16 16 16 15 15 15 15 14 14 13 13 12 12 11 10 9 9 8 8 8 8 7 7 7 7 6 6 6 6 6 5 4 4 4 4 4 5
15 14 13 13 13 14 14 14 14 14 14 14 14 13 13 12 12 11 10 10 9 8 8 8 7 7 7 7 7 6 6 6 6 5 5 5 5 5 4 4 4 3 4
14 13 13 12 13 14 14 14 13 13 13 13 12 12 12 11 10 10 9 9 8 8 7 7 7 7 6 6 6 6 5 5 5 5 5 4 4 4 4 3 3 2 3
14 13 12 12 13 13 13 13 12 12 12 12 11 11 10 10 9 9 9 8 8 7 7 7 6 6 6 5 5 5 4 4 4 4 4 3 3 3 3 3 2 2 1
14 13 13 12 13 13 13 13 12 12 11 11 10 10 9 9 9 8 8 7 7 7 6 6 6 5 5 4 4 4 4 3 3 3 2 2 1 1 1 2 2 1 1
14 13 13 13 13 13 12 12 12 11 10 10 10 9 9 8 8 8 7 7 6 6 6 5 5 5 4 4 3 3 3 3 2 2 1 0 0 0 0 0 1 1 1
14 13 12 12 11 11 12 11 11 10 10 9 9 8 8 8 8 7 6 6 6 5 5 5 4 4 4 3 3 3 3 2 2 1 0 -1 -1 -1 -1 -0 0 0 0
14 13 11 11 11 10 11 11 10 10 9 9 8 8 7 7 7 6 6 5 5 5 4 4 4 3 3 3 3 3 2 2 1 0 -1 -1 -2 -1 -1 -1 -0 0 0
14 13 12 11 10 10 10 10 10 9 9 8 8 7 7 6 6 5 5 5 5 4 4 4 3 3 3 3 2 2 2 1 1 -0 -1 -1 -2 -2 -1 -0 0 -0 -0
14 13 11 10 10 10 10 9 9 9 8 8 7 6 6 6 5 5 5 4 4 4 3 3 3 2 2 2 2 1 1 1 0 -0 -1 -1 -1 -1 -1 -0 -1 -1 -1
14 12 12 10 10 9 8 8 8 8 8 7 6 6 5 5 5 4 4 4 3 3 3 2 2 2 1 1 1 1 1 1 0 -1 -1 -2 -2 -1 -1 -1 -1 -1 -1
13 13 12 11 10 9 8 8 8 7 7 6 6 5 5 4 4 4 3 3 3 2 2 2 1 1 1 0 1 1 1 0 0 -1 -1 -2 -2 -2 -2 -2 -2 -2 -2
14 13 11 10 9 8 8 8 7 7 6 6 5 5 4 4 3 3 3 2 2 2 1 1 1 1 0 0 0 0 0 -1 -1 -1 -2 -2 -2 -3 -2 -2 -2 -3 -3
12 11 10 8 8 8 8 7 7 6 6 5 5 4 4 3 3 3 2 2 1 1 1 1 0 0 -0 -1 -1 -0 -1 -2 -2 -2 -2 -3 -3 -3 -2 -2 -3 -4 -4
9 8 7 7 7 7 7 7 6 5 5 4 4 4 3 3 2 2 2 1 1 1 1 0 -0 -1 -1 -2 -2 -2 -2 -2 -2 -3 -4 -3 -3 -2 -2 -3 -3 -4 -4
7 7 7 6 6 7 7 5 5 5 4 4 3 3 3 2 2 2 1 1 1 0 0 -0 -1 -1 -2 -3 -2 -2 -2 -2 -3 -3 -3 -4 -3 -3 -3 -3 -4 -4 -3
6 6 6 5 6 6 6 5 4 4 4 3 3 2 2 2 2 1 1 1 0 -0 -0 -1 -2 -2 -3 -3 -3 -2 -2 -2 -3 -3 -3 -4 -3 -3 -4 -4 -4 -4 -4
6 6 5 5 6 6 6 4 3 3 3 3 2 2 2 1 1 0 0 -0 -0 -1 -1 -2 -2 -3 -3 -3 -3 -3 -2 -2 -2 -4 -4 -4 -4 -5 -5 -5 -5 -5 -6
5 4 4 3 3 5 4 4 3 3 2 2 2 1 1 1 0 -0 -1 -1 -1 -2 -2 -2 -3 -3 -3 -3 -3 -2 -2 -3 -4 -4 -5 -5 -5 -6 -6 -6 -6 -6 -7
4 4 4 3 3 3 3 3 2 2 2 1 1 0 0 -0 -1 -1 -2 -2 -2 -2 -2 -2 -3 -3 -3 -3 -2 -2 -3 -3 -4 -4 -6 -6 -6 -7 -6 -6 -6 -7 -7
5 4 4 3 3 3 2 2 2 1 1 1 0 -0 -1 -1 -1 -2 -3 -2 -3 -3 -3 -3 -3 -3 -3 -3 -3 -3 -3 -4 -4 -5 -6 -7 -7 -7 -7 -7 -7 -7 -7

GFSMW_925_temp_030.txt.gz
Temp
17 18 20 20 20 20 20 20 20 18 19 18 17 17 16 16 16 16 16 16 15 15 15 14 14 13 13 11 11 11 10 10 9 9 10 12 12 11 11 11 11 11 9
15 15 17 18 19 18 19 18 17 17 17 18 17 16 16 15 15 15 15 14 14 14 14 13 12 12 11 10 10 9 9 8 8 7 6 5 8 10 11 9 9 8 9
16 14 14 16 17 17 18 18 17 17 18 17 16 15 15 14 14 13 13 13 13 13 12 12 11 10 10 9 8 8 7 7 7 7 6 4 4 4 8 8 7 7 6
16 14 13 13 15 16 18 17 17 17 17 17 16 15 13 12 13 12 12 12 11 11 11 10 10 9 9 8 8 7 7 7 6 6 6 6 6 3 3 6 5 6 5
16 14 13 14 15 16 16 16 17 16 16 16 16 15 14 13 12 11 11 11 10 10 10 9 9 8 8 7 7 7 6 6 5 5 4 5 5 5 2 3 3 4 4
15 13 13 13 13 15 15 16 16 15 15 15 15 14 13 12 11 11 11 10 10 9 9 8 8 7 7 7 6 6 6 5 5 5 4 4 3 3 2 2 2 2 3
13 12 12 11 11 12 14 14 15 14 14 14 14 13 13 12 12 11 10 10 9 8 8 7 7 7 6 6 6 5 5 4 4 4 4 4 3 3 2 2 2 2 2
14 13 12 11 11 11 13 13 13 13 13 13 13 13 12 12 11 11 10 9 8 7 7 7 6 6 6 5 5 5 4 4 4 3 3 2 2 2 1 1 1 0 1
13 12 11 11 11 11 11 12 12 12 12 12 12 11 11 11 10 9 9 8 7 7 7 6 6 6 5 5 4 4 4 3 3 3 2 2 1 0 -0 -0 0 -0 -1
12 12 12 11 10 11 12 12 12 11 11 11 11 10 10 10 9 9 8 7 7 7 6 6 5 5 4 4 3 3 3 3 2 2 1 1 0 -1 -1 -1 -1 -1 -1
12 12 11 11 10 11 11 11 11 11 10 10 10 9 9 9 8 8 7 7 6 6 6 5 5 4 4 3 3 3 3 2 2 1 1 0 -1 -1 -2 -2 -2 -1 -1
12 11 11 10 9 9 10 10 10 10 10 9 9 9 8 8 7 7 6 6 6 5 5 4 4 4 3 3 3 2 2 2 1 1 0 -0 -1 -2 -2 -2 -2 -2 -1
12 11 10 10 9 9 9 9 10 9 9 9 8 8 8 7 7 6 6 6 5 5 4 4 3 3 2 2 2 2 1 1 1 1 -0 -1 -1 -2 -2 -2 -2 -1 -1
12 11 10 9 9 8 8 9 9 9 8 8 8 7 7 7 6 6 5 5 4 4 4 3 3 2 2 1 1 1 1 1 1 0 -0 -0 -1 -2 -2 -2 -1 -1 -2
12 11 10 9 8 8 8 8 9 8 8 8 7 7 6 6 5 5 4 4 4 3 3 2 2 1 1 0 1 1 1 1 0 0 -0 -1 -1 -1 -1 -1 -1 -2 -2
12 11 10 9 8 7 7 7 8 8 8 7 6 6 6 5 5 4 4 4 3 3 2 2 1 1 0 -0 1 1 0 0 -1 -1 -1 -2 -2 -2 -2 -2 -2 -2 -1
12 11 10 9 8 7 7 7 8 7 7 6 6 5 5 4 4 4 3 3 2 2 1 1 1 0 -0 -0 -0 -0 -0 -1 -2 -2 -2 -2 -3 -3 -3 -3 -2 -2 -2
12 11 10 9 8 7 7 8 7 7 6 6 5 5 4 4 4 3 3 2 2 1 1 0 0 -0 -1 -1 -1 -1 -2 -2 -2 -2 -3 -3 -3 -3 -2 -2 -3 -3 -4
12 11 9 7 6 6 7 7 7 6 6 5 5 4 4 3 3 3 2 2 1 1 0 -0 -0 -1 -1 -2 -2 -2 -2 -2 -3 -3 -3 -3 -3 -3 -2 -3 -3 -4 -4
8 7 7 6 6 6 7 6 5 5 5 5 4 4 3 3 2 2 1 1 0 0 -0 -1 -1 -1 -2 -2 -2 -2 -2 -2 -3 -3 -4 -3 -3 -2 -3 -2 -3 -5 -5
6 6 6 5 5 6 7 5 5 5 4 4 4 3 3 2 2 1 1 0 -0 -0 -1 -1 -1 -2 -2 -3 -3 -2 -2 -2 -3 -3 -3 -4 -4 -3 -3 -3 -5 -5 -4
5 5 5 4 5 6 6 4 4 4 4 3 3 3 2 2 1 1 0 -0 -1 -1 -2 -2 -2 -3 -3 -3 -3 -2 -2 -2 -2 -3 -4 -4 -4 -4 -4 -5 -5 -4 -5
5 5 4 4 5 6 6 4 3 3 3 3 2 2 1 1 0 -0 -1 -1 -2 -2 -2 -3 -3 -3 -3 -3 -3 -3 -2 -3 -3 -4 -4 -4 -5 -5 -6 -6 -5 -5 -7
3 4 3 3 3 4 5 4 3 3 3 2 1 1 1 -0 -0 -1 -2 -2 -3 -3 -3 -3 -3 -4 -4 -3 -3 -3 -3 -4 -4 -4 -5 -5 -6 -6 -6 -7 -7 -7 -7
3 3 3 2 2 3 3 3 2 2 2 1 1 0 -0 -1 -1 -2 -2 -3 -3 -3 -3 -3 -3 -4 -4 -4 -3 -3 -3 -3 -4 -4 -6 -7 -7 -7 -7 -7 -7 -7 -7
3 3 3 2 2 2 2 2 2 2 1 1 -0 -1 -1 -2 -2 -2 -3 -3 -4 -3 -3 -3 -3 -4 -4 -4 -4 -3 -4 -4 -5 -6 -7 -7 -8 -8 -8 -8 -7 -7 -7

GFSMW_925_temp_033.txt.gz
Temp
17 18 19 19 19 20 20 20 20 19 19 18 16 16 15 15 15 15 15 16 15 15 15 14 14 13 13 11 11 10 10 9 8 9 9 11 10 10 10 10 9 9 9
16 15 17 17 18 19 19 19 19 18 17 17 16 16 14 14 14 14 14 15 15 14 14 13 12 12 11 10 9 9 8 8 7 6 5 4 7 9 12 10 9 9 8
15 14 13 15 17 17 17 17 17 16 16 17 16 15 14 13 12 13 13 13 13 13 12 12 11 10 9 9 8 7 7 6 7 6 6 3 3 3 7 8 7 7 5
16 15 12 13 15 16 16 16 16 16 16 16 16 15 13 11 12 12 12 12 12 11 11 10 10 9 8 8 7 7 6 6 5 6 6 5 5 2 2 5 5 4 3
15 14 13 13 15 16 15 16 15 16 16 16 16 15 13 13 12 11 11 11 11 10 10 9 8 8 7 7 7 6 6 5 5 4 3 3 4 3 1 2 2 2 3
15 14 12 13 12 14 15 15 15 15 15 16 15 15 14 12 11 11 11 10 10 9 8 8 8 7 7 6 6 5 5 4 4 4 3 3 2 1 1 0 1 1 2
13 11 11 11 11 12 13 14 14 13 14 15 14 14 13 12 12 11 10 9 9 8 8 7 7 6 6 5 5 5 4 4 3 3 2 2 2 1 1 -0 -0 -0 0
13 13 12 11 11 11 12 12 13 12 13 14 13 13 12 12 11 11 10 9 9 8 7 7 6 6 5 5 4 4 4 3 3 2 2 2 1 0 -0 -1 -1 -2 -1
13 13 11 11 10 10 11 12 12 12 12 12 12 12 11 11 10 9 9 8 7 7 6 6 5 5 4 4 4 3 3 3 2 2 2 1 1 -0 -1 -1 -2 -2 -2
12 11 11 10 9 10 11 11 12 11 11 11 11 11 10 10 9 9 8 7 7 6 6 5 5 4 4 3 3 3 3 2 2 2 1 1 0 -0 -1 -1 -2 -2 -3
11 11 10 9 9 9 10 10 11 10 10 10 10 10 9 9 8 8 7 7 6 5 5 5 4 4 3 3 3 2 2 1 1 1 1 0 0 -1 -1 -1 -2 -3 -3
11 10 9 9 8 8 8 9 9 10 10 9 9 9 8 8 8 7 6 6 5 5 4 4 4 3 3 2 2 1 1 1 1 1 0 0 -0 -1 -1 -2 -3 -3 -3
10 10 9 8 8 7 8 8 9 9 9 9 8 8 8 7 7 6 5 5 5 4 4 3 3 2 2 2 1 1 1 1 1 0 0 -0 -1 -2 -2 -2 -3 -3 -2
11 10 9 8 7 7 7 8 8 8 8 8 8 7 7 6 6 5 5 4 4 4 3 3 2 2 1 1 0 0 1 0 0 -0 -1 -1 -2 -2 -2 -2 -2 -2 -2
10 10 9 7 6 6 7 7 8 8 8 8 7 6 6 6 5 5 4 4 4 3 2 2 2 1 1 -0 0 0 0 -0 -1 -2 -2 -2 -2 -2 -2 -1 -2 -2 -3
10 10 9 7 6 6 6 6 7 7 8 7 6 6 5 5 5 4 4 3 3 2 2 1 1 0 0 -0 -0 -0 -1 -1 -2 -2 -2 -2 -3 -3 -2 -3 -2 -2 -1
10 10 8 8 7 6 6 6 7 7 7 6 6 5 5 4 4 4 3 3 2 2 1 1 0 -0 -0 -1 -1 -1 -1 -2 -2 -2 -2 -3 -3 -3 -4 -4 -2 -3 -4
11 10 8 7 7 6 7 7 7 7 6 5 5 5 4 4 3 3 3 2 2 1 1 0 -0 -1 -1 -2 -1 -1 -2 -2 -2 -2 -3 -3 -4 -4 -3 -3 -3 -4 -4
10 9 8 7 6 6 7 7 6 6 5 5 5 4 4 3 3 2 2 1 1 0 0 -1 -1 -1 -2 -2 -2 -2 -2 -2 -2 -3 -3 -3 -3 -3 -3 -3 -4 -4 -5
8 7 6 6 5 5 6 6 5 5 5 4 4 4 3 3 2 2 1 1 0 -0 -1 -1 -1 -2 -2 -3 -3 -2 -2 -2 -3 -3 -3 -3 -3 -3 -3 -3 -4 -5 -5
6 5 6 5 4 5 6 5 5 5 4 4 4 3 3 2 2 1 0 -0 -1 -1 -1 -2 -2 -2 -3 -3 -3 -3 -2 -2 -2 -3 -4 -4 -4 -3 -3 -3 -5 -5 -4
5 4 4 3 4 6 6 4 4 4 4 3 3 2 2 1 1 1 -0 -1 -1 -2 -2 -3 -3 -3 -3 -3 -4 -3 -2 -2 -3 -3 -4 -4 -4 -4 -4 -5 -5 -4 -5
4 4 3 3 4 6 7 4 3 3 3 3 2 2 1 1 0 -0 -1 -1 -2 -3 -3 -3 -4 -4 -4 -4 -4 -3 -3 -3 -3 -4 -4 -4 -5 -5 -6 -6 -5 -6 -7
3 3 3 2 2 5 5 4 3 3 3 2 1 1 1 -0 -1 -1 -2 -2 -3 -3 -3 -4 -4 -4 -4 -4 -4 -3 -3 -4 -4 -4 -5 -6 -6 -7 -7 -7 -7 -7 -7
3 3 3 2 2 3 3 3 3 3 2 1 1 0 -0 -1 -1 -2 -2 -3 -3 -3 -3 -3 -4 -4 -4 -4 -3 -3 -3 -4 -4 -5 -6 -7 -8 -8 -8 -8 -8 -8 -8
2 1 1 1 1 2 2 2 2 2 2 1 -0 -1 -1 -2 -2 -3 -3 -3 -4 -4 -4 -4 -4 -4 -4 -4 -4 -4 -4 -4 -5 -6 -8 -8 -8 -8 -8 -8 -8 -8 -8

GFSMW_925_temp_036.txt.gz
Temp
17 18 20 20 20 20 20 20 19 18 18 17 16 15 15 15 15 16 15 15 15 15 15 15 14 13 13 11 11 10 10 9 9 9 10 10 10 9 9 9 8 8 8
15 15 17 17 18 19 19 19 18 17 17 16 16 15 14 13 14 14 14 14 14 14 14 13 12 12 11 10 9 9 8 7 6 6 4 3 7 9 10 9 9 8 9
16 14 13 16 17 17 18 18 17 16 16 16 15 14 13 12 12 12 12 12 13 13 13 12 11 10 10 9 8 7 7 6 6 5 5 3 2 2 6 8 7 6 5
15 14 13 13 15 16 17 17 16 15 15 15 15 15 13 11 10 11 11 11 12 12 11 11 10 9 8 8 7 6 6 6 4 5 5 4 4 1 1 4 5 3 3
16 14 13 15 15 15 15 15 15 14 14 14 14 14 11 11 11 10 10 11 10 10 10 9 9 8 8 7 6 6 5 5 4 3 3 3 3 2 -0 1 1 1 1
14 14 14 13 13 14 14 14 14 13 14 14 14 14 13 11 10 10 10 9 9 9 8 8 8 7 7 6 6 5 5 4 4 3 3 2 1 1 -0 -2 -0 -0 0
12 11 11 11 10 11 12 13 13 12 13 13 13 13 13 12 11 10 10 9 8 8 7 7 7 6 6 5 5 5 4 4 3 3 2 2 1 1 0 -1 -1 -1 -1
11 11 11 11 11 10 12 12 12 12 13 13 13 13 12 12 11 10 10 9 8 7 7 6 6 6 5 5 4 4 4 3 3 2 2 2 1 1 -0 -1 -2 -3 -2
10 11 11 11 10 10 10 11 11 11 12 12 12 11 11 11 10 9 9 8 7 7 6 6 5 5 4 4 4 3 3 3 2 2 2 1 1 0 -0 -1 -1 -3 -3
10 10 10 9 10 9 10 11 11 11 11 11 11 11 10 10 9 9 8 7 6 6 6 5 5 4 4 3 3 3 2 2 1 1 1 1 0 0 -0 -1 -1 -2 -3
11 10 9 8 8 8 9 9 9 10 10 10 10 9 9 9 8 8 7 6 6 5 5 5 4 4 3 3 2 2 2 1 1 1 0 0 0 -0 -1 -1 -2 -3 -3
10 9 8 8 8 7 7 8 8 9 9 9 9 8 8 8 7 7 6 6 5 5 4 4 4 3 3 2 2 1 1 1 0 0 -0 -1 -1 -1 -1 -2 -2 -3 -3
8 8 8 8 7 6 6 7 7 8 8 8 8 7 7 7 6 6 5 5 5 4 4 3 3 2 2 2 1 1 0 0 -0 -1 -1 -2 -2 -2 -2 -2 -3 -3 -3
9 9 8 7 6 6 6 6 6 8 8 8 7 7 6 6 6 5 5 4 4 4 3 3 2 2 2 1 0 0 0 -0 -1 -1 -2 -2 -2 -3 -3 -3 -2 -2 -3
9 8 7 6 6 5 5 6 6 7 7 7 7 6 6 5 5 5 4 4 3 3 2 2 2 1 1 0 -0 -0 -0 -1 -1 -2 -2 -2 -3 -3 -2 -2 -2 -3 -3
10 8 8 6 5 5 5 5 6 7 7 7 6 5 5 5 4 4 4 3 3 2 2 2 1 0 0 -0 -0 -0 -1 -1 -2 -2 -2 -3 -3 -3 -3 -3 -2 -2 -2
10 9 7 7 6 5 5 5 6 7 7 6 5 5 5 4 4 3 3 3 2 2 1 1 0 0 -1 -1 -1 -1 -1 -2 -2 -2 -2 -3 -3 -3 -4 -4 -3 -3 -3
10 8 7 6 6 5 6 6 6 6 6 5 5 4 4 4 3 3 2 2 2 1 1 0 -0 -1 -1 -2 -2 -2 -2 -2 -2 -2 -3 -3 -3 -3 -3 -3 -3 -4 -4
9 8 7 6 5 5 6 6 5 6 5 4 4 4 4 3 3 2 2 2 1 0 0 -1 -1 -2 -2 -2 -3 -2 -2 -2 -2 -3 -3 -3 -3 -3 -3 -3 -4 -4 -5
8 6 5 5 5 5 6 5 4 5 4 4 4 3 3 3 2 2 1 1 0 -0 -1 -1 -2 -2 -2 -3 -3 -2 -3 -3 -3 -3 -3 -3 -3 -3 -3 -3 -4 -5 -5
6 5 5 5 4 5 6 4 4 4 4 4 3 3 2 2 2 1 0 -0 -1 -1 -1 -2 -2 -2 -3 -3 -4 -3 -3 -3 -3 -3 -3 -4 -4 -3 -3 -4 -5 -5 -4
5 4 3 3 4 5 6 3 4 3 3 3 3 2 2 1 1 1 -0 -1 -1 -2 -2 -3 -3 -3 -3 -4 -4 -3 -3 -3 -3 -3 -4 -4 -4 -4 -5 -5 -5 -5 -5
3 3 3 2 3 5 6 3 2 3 3 3 2 1 1 1 0 -0 -1 -1 -2 -3 -3 -4 -4 -4 -4 -4 -4 -4 -4 -3 -3 -4 -4 -4 -5 -6 -7 -7 -6 -6 -8
3 3 3 2 1 4 4 3 3 3 3 2 1 0 0 -0 -1 -1 -2 -2 -3 -3 -4 -4 -4 -4 -4 -5 -4 -4 -4 -4 -4 -4 -5 -6 -6 -7 -7 -8 -8 -8 -8
3 3 2 1 0 3 3 2 3 3 2 1 0 -0 -0 -1 -1 -2 -2 -3 -3 -4 -3 -4 -4 -4 -5 -4 -4 -4 -4 -4 -4 -5 -6 -8 -8 -8 -8 -8 -8 -8 -8
1 1 0 -0 0 2 1 2 2 2 2 0 -0 -1 -1 -2 -2 -2 -2 -3 -4 -4 -4 -4 -4 -4 -5 -4 -4 -4 -4 -4 -5 -7 -8 -9 -9 -9 -9 -9 -9 -9 -9

GFSMW_925_temp_039.txt.gz
Temp
18 18 19 20 21 21 20 20 19 17 17 16 16 15 15 15 15 15 15 16 15 14 15 14 14 14 14 12 11 11 10 9 9 9 10 9 9 9 9 9 9 8 7
17 18 17 19 19 20 19 18 18 16 16 16 15 14 14 12 13 14 14 14 13 14 14 14 13 13 12 11 10 10 8 7 7 6 6 9 10 8 8 8 7 7 6
18 18 17 16 19 18 18 17 17 16 15 16 15 14 12 11 11 12 12 12 13 13 13 13 12 11 10 10 9 8 8 6 5 6 7 9 9 6 6 7 6 5 5
17 18 17 16 15 18 17 17 16 15 15 15 15 14 12 11 10 10 11 11 11 12 12 12 11 10 9 8 7 7 7 6 5 5 4 5 4 6 6 5 5 3 3
17 17 17 17 16 16 16 16 15 14 14 14 15 13 11 10 9 10 10 10 9 10 10 10 10 9 8 7 7 6 6 5 4 3 3 3 3 2 3 5 5 3 3
16 17 17 16 14 15 15 15 14 13 13 13 13 13 12 9 9 9 9 9 9 9 9 9 9 8 7 7 6 5 5 4 4 3 2 2 3 3 2 3 3 2 2
15 14 13 13 12 11 12 12 13 12 12 12 12 12 11 10 10 9 9 8 8 8 8 8 7 7 6 6 5 5 4 4 3 3 2 2 1 1 1 1 2 2 1
14 13 14 13 12 11 11 11 11 10 11 11 11 11 11 10 9 10 9 9 8 8 7 7 7 6 6 5 5 4 4 3 3 2 2 2 1 0 0 0 0 1 2
14 13 12 12 12 11 11 11 10 10 10 11 11 10 10 11 10 9 9 8 8 7 7 6 6 5 5 4 4 4 3 3 2 2 1 1 0 -0 -0 -1 -1 -0 0
13 12 12 12 11 11 10 9 10 9 10 10 10 10 10 10 9 9 8 8 7 7 6 5 5 5 4 4 4 3 3 2 1 1 1 0 -0 -1 -1 -1 -1 -1 -1
13 12 11 10 9 8 9 8 9 9 8 9 9 9 9 9 8 8 7 7 7 6 5 5 4 4 3 3 3 2 2 1 1 0 -0 -1 -1 -1 -1 -2 -2 -2 -2
10 10 9 8 8 8 8 8 7 7 7 8 8 8 8 8 7 7 7 6 6 5 5 4 4 3 3 3 2 2 1 0 0 -0 -1 -1 -2 -2 -2 -2 -2 -2 -2
8 8 8 8 8 7 7 7 6 6 7 7 8 7 7 7 7 6 6 5 5 4 4 4 3 3 2 2 1 1 0 -0 -0 -1 -2 -2 -2 -2 -2 -3 -3 -3 -3
8 8 8 7 7 7 7 6 5 6 6 7 7 6 6 6 6 5 5 4 4 4 3 3 3 2 2 1 1 0 -0 -0 -1 -1 -2 -2 -3 -3 -3 -3 -2 -2 -2
8 8 7 7 7 6 6 5 5 5 6 6 6 6 6 5 5 4 4 4 4 3 3 2 2 2 1 0 -0 -0 -0 -1 -1 -2 -2 -3 -3 -3 -2 -2 -2 -2 -2
8 7 7 7 6 6 5 5 4 5 7 6 5 5 5 4 4 4 3 3 3 2 2 2 1 1 0 -0 -1 -0 -1 -1 -2 -2 -2 -3 -3 -3 -3 -3 -3 -2 -2
8 7 7 7 6 5 5 5 4 5 6 5 4 4 4 4 3 3 3 3 2 2 2 1 1 0 -0 -1 -1 -1 -1 -2 -2 -3 -3 -3 -3 -3 -4 -4 -3 -3 -3
9 8 7 6 5 5 4 4 5 5 5 4 4 4 4 3 3 3 3 2 2 1 1 0 -0 -1 -1 -2 -2 -2 -2 -3 -3 -3 -3 -3 -3 -4 -3 -3 -3 -4 -3
9 8 7 5 5 4 4 4 4 4 4 3 4 3 4 3 3 2 2 1 1 1 0 -0 -1 -1 -2 -2 -3 -2 -3 -3 -3 -3 -3 -3 -3 -3 -2 -3 -4 -3 -4
8 6 6 5 5 4 4 4 3 3 3 3 3 3 3 3 2 2 1 1 0 -0 -0 -1 -2 -2 -3 -3 -3 -3 -3 -3 -3 -3 -3 -3 -3 -3 -3 -3 -3 -4 -4
6 6 6 5 4 4 4 3 3 2 3 3 3 3 3 2 2 1 1 0 -0 -1 -1 -1 -2 -2 -3 -3 -4 -3 -3 -3 -3 -3 -3 -3 -4 -3 -3 -3 -4 -5 -4
5 5 4 3 3 4 4 3 2 3 3 3 3 2 2 1 1 1 -0 -1 -1 -1 -2 -2 -3 -3 -3 -4 -4 -3 -3 -3 -3 -3 -4 -4 -3 -4 -4 -5 -6 -5 -5
4 4 3 2 3 4 4 2 1 3 3 2 2 1 1 1 0 -0 -1 -1 -2 -3 -3 -4 -4 -4 -4 -4 -4 -4 -4 -3 -3 -4 -4 -4 -5 -5 -6 -7 -6 -6 -7
3 2 3 2 2 3 3 3 2 3 3 2 1 0 0 -0 -1 -1 -2 -2 -3 -3 -4 -4 -4 -4 -5 -5 -5 -4 -4 -4 -4 -4 -5 -6 -6 -7 -7 -7 -7 -7 -7
3 3 2 1 -0 2 2 3 3 3 2 1 0 -0 -1 -1 -1 -2 -2 -3 -3 -4 -3 -4 -4 -4 -4 -4 -4 -4 -4 -4 -4 -4 -6 -7 -7 -8 -8 -8 -8 -8 -8
1 1 -0 -1 -1 1 1 2 2 3 2 0 -1 -1 -1 -2 -2 -3 -3 -3 -3 -4 -4 -4 -4 -5 -5 -5 -4 -4 -4 -4 -5 -6 -7 -8 -8 -8 -8 -8 -8 -8 -8

GFSMW_925_temp_042.txt.gz
Temp
23 22 22 22 22 22 22 22 21 20 20 19 20 19 18 16 14 14 15 14 15 15 15 13 13 12 12 11 11 11 11 10 10 12 13 12 11 10 10 10 10 9 8
23 23 22 22 22 22 21 21 20 20 19 19 19 19 16 12 12 13 13 13 14 15 15 12 11 11 11 10 10 10 10 9 8 10 11 14 13 11 10 10 9 9 8
22 23 24 23 22 22 22 21 20 19 18 18 18 14 11 10 10 10 11 12 13 13 14 11 11 10 10 9 9 9 9 10 8 8 10 13 13 11 11 10 9 8 8
21 22 22 23 23 22 21 20 19 18 18 16 15 14 15 13 11 10 10 11 12 11 11 10 10 10 9 9 8 8 8 8 9 8 7 7 8 10 10 10 9 8 7
22 22 21 21 22 21 20 18 18 17 16 15 16 16 15 13 10 8 9 10 10 10 9 9 9 8 8 7 7 7 7 7 7 7 7 7 7 6 7 8 9 7 7
21 21 21 20 20 20 18 17 16 16 15 16 15 16 15 11 8 8 8 9 8 8 8 8 8 7 7 7 6 6 6 6 5 5 5 6 6 7 6 7 7 6 6
21 21 20 20 20 19 17 16 16 15 15 15 15 14 12 10 9 8 8 8 8 7 7 7 7 7 6 6 5 5 4 4 5 4 5 4 4 4 4 4 5 6 5
21 21 20 20 19 18 17 16 16 15 14 14 14 13 11 9 8 8 8 8 8 8 7 7 6 6 5 5 5 4 4 3 4 4 4 3 4 3 3 3 3 4 5
20 20 21 19 19 18 17 16 15 14 14 14 13 12 9 8 8 8 8 7 7 7 6 6 6 5 5 5 4 4 4 4 3 4 3 3 3 2 2 2 2 2 3
19 19 20 19 18 17 16 15 15 14 13 12 12 10 7 8 9 9 8 7 7 6 6 6 5 5 4 4 4 4 3 3 3 3 3 2 2 2 2 1 1 1 2
17 18 19 18 17 16 15 14 14 12 11 11 9 8 8 9 8 8 8 7 6 6 6 5 5 5 4 3 4 3 3 3 3 2 2 2 1 1 1 1 1 1 1
14 15 17 16 15 14 13 13 12 11 10 8 8 7 8 8 8 7 7 6 6 5 5 5 4 4 3 3 3 3 3 2 2 2 1 1 1 1 1 0 0 0 0
13 13 13 14 14 13 12 12 10 8 8 8 7 7 7 8 7 6 6 6 5 5 4 4 4 3 2 2 2 2 2 2 2 1 1 1 0 0 0 -0 -0 -0 -0
13 12 13 13 13 11 10 9 7 6 6 7 7 7 7 7 6 5 5 5 4 4 3 3 2 2 2 1 1 2 2 2 1 1 0 -0 -0 -0 -1 -1 -0 -0 -1
11 11 12 12 10 9 7 6 6 6 6 6 6 7 6 5 5 4 4 4 4 3 2 2 2 1 1 1 1 2 2 1 1 1 0 -0 -1 -2 -2 -2 -1 -1 -1
10 10 10 9 8 7 6 6 5 5 6 5 5 5 5 5 4 4 4 3 2 2 2 2 1 1 1 0 -1 -0 1 1 1 0 -0 -0 -1 -1 -2 -2 -2 -2 -2
10 10 9 8 7 7 6 6 5 5 5 5 5 5 5 4 4 3 3 2 2 2 2 1 1 1 0 -0 -1 -1 -0 0 -0 -0 -1 -1 -1 -2 -2 -2 -2 -2 -2
11 9 8 7 7 6 6 5 6 6 6 5 5 5 4 4 3 3 2 1 2 2 1 1 0 -0 -0 -1 -2 -2 -1 -0 -1 -1 -1 -1 -1 -2 -2 -2 -2 -3 -2
11 9 8 7 7 7 7 7 7 6 6 5 4 4 4 3 3 2 1 1 1 1 1 -0 -0 -0 -0 -2 -3 -2 -1 -1 -1 -1 -1 -1 -2 -2 -2 -2 -3 -2 -2
10 9 8 8 8 7 7 7 6 6 5 4 4 4 3 3 2 1 1 1 1 0 -0 -0 -1 -1 -1 -2 -3 -2 -2 -1 -1 -1 -1 -1 -2 -2 -2 -3 -2 -2 -2
9 8 8 8 7 7 7 6 6 5 4 3 3 2 2 2 2 1 1 0 0 -0 -0 -0 -0 -1 -2 -2 -3 -3 -2 -2 -2 -1 -1 -1 -2 -2 -3 -3 -3 -3 -4
7 7 6 6 5 6 5 5 3 2 3 3 2 2 1 1 1 1 0 -0 -1 -0 0 -0 0 -0 -1 -2 -3 -3 -3 -3 -2 -2 -2 -2 -3 -3 -4 -4 -5 -4 -4
6 7 7 6 6 5 4 2 1 3 3 2 1 0 0 0 0 1 -0 0 -1 -0 -0 -0 -1 -1 -1 -2 -3 -3 -3 -2 -3 -3 -3 -3 -4 -4 -5 -5 -5 -5 -5
6 6 6 6 5 3 3 3 2 2 2 1 1 0 0 -0 -0 -1 -1 -1 -1 -1 -1 -1 -1 -2 -2 -2 -3 -3 -3 -3 -3 -3 -3 -4 -5 -5 -5 -5 -5 -5 -5
5 6 5 5 3 2 1 2 2 2 2 1 1 0 -0 -0 -1 -1 -1 -1 -2 -3 -2 -2 -2 -2 -3 -3 -4 -4 -4 -3 -4 -4 -4 -4 -5 -5 -5 -5 -5 -5 -6
4 4 3 3 2 1 1 1 1 1 1 1 0 0 -0 -1 -1 -1 -1 -2 -3 -4 -4 -4 -4 -4 -4 -4 -5 -4 -4 -4 -5 -5 -5 -5 -6 -6 -6 -6 -6 -7 -7

GFSMW_925_temp_045.txt.gz
Temp
25 25 25 25 25 25 26 25 25 24 23 23 23 23 23 21 20 19 18 17 17 15 15 15 14 14 14 14 13 12 12 11 11 13 14 13 12 12 12 11 11 11 10
24 25 25 24 24 24 24 24 25 24 23 23 22 23 21 18 16 15 16 15 14 13 14 14 14 13 13 12 12 12 12 11 10 11 12 14 13 13 12 12 11 10 10
24 25 25 25 24 24 24 24 24 24 23 22 22 21 16 13 12 12 12 12 12 13 14 13 13 12 12 11 11 10 11 11 10 9 11 13 14 11 13 11 11 10 10
24 24 25 25 25 24 24 24 24 23 22 21 21 19 15 13 10 11 10 10 11 12 12 12 11 11 11 10 10 9 10 10 10 10 9 8 9 10 10 12 11 11 9
24 24 24 23 23 24 24 23 23 22 21 20 20 17 16 15 10 9 9 10 10 10 11 11 10 10 10 9 9 9 9 9 9 8 8 8 8 8 8 8 10 9 9
24 24 23 23 23 22 23 22 22 21 20 19 17 16 17 13 9 8 7 8 9 9 10 10 9 9 8 8 8 7 7 7 7 7 7 7 7 8 7 7 7 7 7
23 23 23 23 22 22 21 21 20 20 19 18 18 18 17 12 9 8 7 7 8 9 9 9 9 8 7 7 7 7 6 6 6 6 6 6 6 6 6 5 6 6 6
22 22 22 22 22 21 21 20 20 19 18 18 18 18 14 12 9 8 8 8 8 8 9 9 8 7 7 7 6 6 6 5 5 5 5 5 5 5 5 4 4 4 5
21 21 21 22 22 21 20 20 19 19 18 17 17 15 13 11 9 9 9 9 9 8 8 8 7 7 7 7 6 6 6 5 5 5 5 4 4 4 4 3 3 3 3
20 20 20 21 22 21 20 19 19 18 17 17 16 13 11 9 8 8 8 8 8 8 8 7 7 7 6 6 6 6 5 5 5 5 4 4 4 3 3 3 3 2 2
19 18 20 20 21 20 19 19 18 17 16 15 13 11 9 8 8 8 8 7 7 7 8 7 7 6 6 5 6 5 5 4 4 4 4 3 3 3 2 2 2 2 2
18 17 18 19 19 19 18 18 17 15 15 13 11 9 8 8 8 8 8 8 8 8 7 7 7 6 5 5 5 5 5 4 4 4 3 3 3 2 2 2 2 1 1
18 16 16 17 18 17 17 16 15 14 12 11 9 8 8 8 8 7 7 7 7 7 6 6 6 5 4 4 4 4 4 4 3 3 3 2 2 1 1 1 1 1 1
16 15 15 16 16 15 15 14 13 11 10 10 9 8 8 8 8 7 7 7 6 6 6 5 4 4 3 3 3 3 3 3 3 3 2 2 1 1 0 -0 -0 -0 -0
15 14 14 14 14 14 13 11 11 10 9 8 8 8 8 7 7 6 6 6 6 5 4 4 3 3 3 3 2 2 2 3 3 2 2 2 1 0 -0 -1 -1 -1 -1
11 11 13 12 11 10 9 8 8 7 8 8 7 7 7 6 6 5 5 5 4 4 3 3 3 3 2 1 1 -0 1 1 2 2 1 1 1 0 -0 -1 -1 -1 -1
11 11 11 10 8 7 7 7 6 6 6 6 6 6 6 6 5 5 4 4 4 3 3 3 2 2 2 1 -0 -1 -0 0 1 1 1 0 0 -0 -1 -1 -1 -1 -2
10 10 9 8 7 6 6 6 6 5 5 5 5 6 5 5 5 4 4 3 3 3 3 2 2 2 2 1 -1 -1 -1 0 1 1 0 -0 -0 -0 -1 -1 -2 -2 -2
10 9 7 6 5 5 5 5 6 5 6 6 6 6 5 5 4 4 3 3 3 3 2 1 1 1 1 0 -2 -2 -1 -0 -0 0 0 -0 -0 -1 -1 -1 -2 -3 -2
8 6 6 4 3 3 4 4 5 5 4 5 6 5 5 4 3 3 2 2 2 2 1 1 1 1 -0 -0 -2 -2 -2 -1 -1 -1 -1 -1 -1 -1 -1 -2 -2 -3 -3
7 6 6 5 5 5 7 7 7 7 5 5 5 4 3 3 2 2 2 2 1 1 2 1 2 1 1 -1 -1 -2 -2 -2 -2 -2 -1 -1 -2 -2 -2 -2 -3 -3 -3
10 10 10 9 9 9 8 7 5 4 3 2 2 2 2 2 2 2 1 1 1 2 2 2 1 1 1 -0 -1 -2 -2 -2 -2 -2 -2 -2 -2 -2 -3 -3 -4 -4 -4
4 5 7 6 5 5 3 2 2 2 3 3 2 1 2 2 2 2 1 2 1 1 1 1 1 1 -0 -1 -1 -1 -2 -2 -2 -2 -3 -3 -3 -3 -4 -4 -4 -4 -4
6 5 6 6 4 3 2 2 2 3 2 2 2 1 1 1 1 1 1 1 1 1 0 0 -0 -1 -1 -1 -2 -3 -3 -3 -3 -3 -3 -4 -4 -4 -4 -4 -4 -5 -5
8 8 7 4 2 2 1 2 2 3 2 2 2 1 1 1 1 0 0 0 -0 -2 -2 -2 -2 -2 -3 -3 -4 -4 -4 -4 -3 -3 -4 -4 -4 -4 -5 -5 -5 -5 -6
7 5 3 2 1 1 1 2 3 3 2 2 2 1 1 1 1 1 1 -0 -1 -2 -2 -4 -4 -4 -4 -4 -5 -5 -4 -4 -4 -5 -5 -5 -5 -5 -5 -6 -6 -6 -6

GFSMW_925_temp_048.txt.gz
Temp
22 25 26 25 26 26 26 26 26 25 24 24 23 21 20 20 21 21 20 19 18 16 16 16 15 15 15 14 14 13 13 12 13 13 13 13 13 12 12 11 11 11 10
21 21 24 25 25 25 25 25 26 24 24 23 23 22 21 20 20 20 19 18 17 16 15 15 15 15 14 14 13 13 12 11 11 11 11 9 11 12 12 11 11 11 10
21 21 21 23 24 24 24 24 25 25 23 23 23 22 20 18 17 18 17 16 15 15 14 14 14 14 14 13 12 12 12 11 10 10 10 8 8 8 12 12 11 11 10
21 20 20 21 23 24 24 24 24 24 24 23 22 21 17 14 14 15 15 14 14 14 13 13 13 13 13 12 11 11 11 11 10 9 9 9 9 6 5 10 10 10 9
19 20 19 21 23 23 23 24 24 24 24 23 21 19 16 14 12 13 13 13 12 12 11 12 12 12 12 11 10 10 10 10 9 9 8 8 8 8 6 4 7 8 8
21 21 22 22 22 23 23 22 23 23 23 22 21 18 15 13 11 10 11 10 10 10 11 11 11 11 11 10 10 9 9 9 8 7 7 7 6 6 5 3 4 4 6
21 20 19 18 20 22 22 22 22 22 22 21 19 17 14 14 11 9 9 9 9 10 10 10 10 10 9 9 8 8 8 7 7 7 6 6 6 6 6 5 3 2 4
19 20 19 16 18 20 21 21 21 21 21 19 17 16 14 12 10 9 9 8 9 9 9 9 9 9 9 8 8 7 7 7 6 6 5 5 5 5 5 4 3 1 1
18 20 17 17 18 19 20 21 20 20 19 18 17 14 13 11 9 8 8 8 8 9 9 9 8 8 8 7 7 7 6 6 5 5 5 5 4 4 4 4 3 2 0
19 18 16 16 18 19 21 20 20 19 18 17 15 12 11 10 8 8 8 8 8 8 8 8 7 7 7 7 6 6 6 5 5 5 4 4 4 3 3 3 2 2 1
17 16 15 16 18 19 20 20 19 18 17 15 12 11 10 9 8 8 8 8 8 8 8 7 7 7 6 6 6 6 5 5 4 4 4 4 3 3 2 2 2 2 1
17 15 15 14 16 18 19 19 18 16 14 11 10 9 8 8 7 7 8 8 8 8 7 7 7 6 6 5 5 5 5 4 4 4 3 3 3 2 2 1 1 1 1
17 14 14 14 14 15 16 16 15 12 10 9 8 8 7 8 7 8 7 8 7 7 7 7 6 5 5 5 4 4 4 4 3 3 3 3 2 2 1 1 0 -0 -1
16 13 13 13 13 13 13 13 11 10 9 8 8 8 8 7 7 7 7 7 7 6 6 6 5 5 4 4 4 3 3 3 3 3 3 2 2 1 1 0 -0 -1 -1
13 12 12 13 12 12 12 10 10 9 8 8 8 7 7 7 7 6 6 6 6 6 5 5 4 4 4 3 3 3 2 2 2 2 2 2 1 1 1 1 0 -0 -1
11 11 12 12 11 10 10 9 9 8 8 8 7 7 7 6 6 6 6 5 5 5 4 4 3 3 3 3 2 1 1 1 0 1 1 1 1 0 0 -0 -0 -0 -1
11 10 10 9 8 8 8 7 8 7 7 6 6 6 6 5 5 5 5 4 4 4 4 3 3 2 2 2 1 -0 -0 -0 -0 0 0 0 0 -0 -0 -1 -1 -1 -1
10 10 9 8 7 7 7 6 6 6 5 5 5 5 5 4 4 4 4 4 4 3 3 3 2 2 2 1 1 -1 -1 -1 -1 -0 -0 -0 -0 -0 -0 -1 -1 -1 -2
9 8 7 6 6 6 5 5 5 4 4 4 4 4 4 4 4 4 3 3 3 3 3 2 2 1 1 0 -0 -1 -2 -2 -1 -1 -1 -1 -1 -1 -1 -1 -1 -2 -3
6 5 5 5 4 5 5 4 4 4 3 3 4 3 2 3 3 3 3 3 3 3 2 2 1 1 1 0 -1 -1 -2 -3 -2 -2 -2 -2 -2 -1 -1 -1 -2 -3 -4
4 4 3 3 2 3 3 2 1 1 0 1 1 1 3 3 3 3 2 3 2 2 2 2 2 1 1 0 -0 -1 -2 -2 -2 -2 -2 -2 -2 -2 -2 -2 -2 -3 -3
4 3 2 2 2 2 2 0 1 1 1 2 3 3 2 2 2 2 2 2 2 2 2 1 1 1 1 0 -0 -1 -1 -2 -2 -3 -3 -3 -3 -2 -3 -3 -3 -3 -3
6 6 5 4 4 4 3 2 2 3 3 2 2 2 2 2 2 2 2 1 1 1 1 0 0 -0 -1 -1 -1 -2 -2 -3 -3 -3 -3 -3 -3 -4 -4 -4 -4 -4 -5
3 3 3 2 1 2 2 1 2 2 2 2 2 2 2 2 2 2 1 1 1 0 -0 -1 -2 -2 -3 -3 -3 -4 -4 -4 -4 -4 -4 -4 -5 -4 -4 -5 -5 -6 -6
4 4 3 2 1 1 1 2 2 3 2 2 2 2 1 1 1 1 1 0 -0 -1 -2 -3 -3 -4 -4 -4 -4 -4 -4 -4 -4 -3 -5 -5 -5 -6 -6 -6 -6 -6 -7
3 3 2 1 1 2 2 3 3 3 2 1 1 1 1 1 1 1 0 -0 -1 -1 -2 -2 -4 -4 -4 -4 -4 -4 -4 -4 -4 -5 -6 -6 -7 -7 -7 -7 -7 -7 -7

GFSMW_925_temp_051.txt.gz
Temp
19 21 23 24 25 25 26 26 26 24 23 21 20 19 19 20 19 20 21 20 19 19 19 18 17 16 16 16 15 15 14 14 14 13 13 13 12 12 12 12 11 11 10
18 18 22 23 23 24 25 25 25 26 24 22 22 19 19 19 19 19 20 20 19 19 18 17 16 16 16 15 15 14 13 12 12 12 10 9 11 12 12 11 11 11 10
17 17 17 21 23 23 24 24 24 24 24 23 21 20 18 18 18 17 19 19 19 18 17 16 16 15 15 15 14 14 14 12 11 11 11 8 8 7 11 10 10 10 10
16 17 18 19 22 23 24 24 24 24 23 23 22 21 18 16 17 17 18 18 17 16 15 15 14 14 14 14 13 13 13 12 11 10 10 10 9 6 7 10 10 9 9
17 18 16 19 22 23 23 23 24 24 23 23 22 21 17 17 17 16 16 15 14 15 14 14 14 13 13 12 13 12 12 11 11 10 9 8 8 8 5 4 6 8 8
18 17 19 19 19 20 21 22 23 22 23 22 21 20 18 16 13 11 12 12 13 13 13 12 12 12 12 11 11 11 11 10 10 9 8 8 7 5 5 2 2 3 5
17 18 16 15 18 19 20 20 21 22 22 22 20 18 18 17 14 12 11 10 10 11 11 11 11 11 11 10 10 10 10 9 9 8 7 7 6 6 5 4 2 1 4
17 18 16 15 17 18 19 19 19 21 21 19 18 18 17 13 12 11 10 10 10 10 10 10 10 10 10 9 9 9 9 8 7 7 6 6 5 5 5 4 3 -1 0
15 16 16 15 17 18 18 18 19 19 20 17 16 15 14 14 12 10 10 9 9 9 10 10 9 9 8 8 9 8 8 7 6 6 5 5 4 4 4 3 3 2 -1
15 15 14 15 17 18 17 18 18 19 17 15 15 13 13 13 11 9 9 9 9 9 9 9 8 8 7 7 7 7 6 6 5 5 5 4 4 4 3 3 2 2 1
14 14 13 15 16 18 17 17 17 18 15 13 11 12 11 10 9 8 8 8 8 9 8 8 7 7 7 7 7 6 6 5 5 4 4 4 3 3 2 2 2 1 1
15 13 12 14 14 15 17 16 15 14 12 11 11 9 9 8 8 8 8 8 8 8 8 7 7 7 6 6 6 4 5 5 4 4 4 3 3 2 2 1 1 1 0
13 12 12 13 11 13 14 13 12 10 10 10 9 8 8 8 7 7 7 7 7 7 7 7 6 6 6 5 5 5 4 4 3 3 3 3 2 2 2 1 1 0 -0
12 11 12 12 10 11 10 9 9 8 8 8 7 7 7 7 7 7 7 7 7 7 7 6 6 5 5 4 4 4 3 3 3 2 2 2 2 1 1 1 0 0 -1
12 11 11 10 9 9 9 8 7 7 7 7 7 7 7 7 7 6 6 6 6 6 6 6 4 3 3 3 4 3 3 2 2 2 1 1 1 1 1 1 0 -0 -0
11 11 10 8 8 9 9 7 6 6 7 6 6 6 6 6 5 5 5 6 6 5 5 4 4 3 3 3 2 2 2 1 1 0 0 0 0 0 -0 -0 -0 -0 -0
11 10 7 7 7 7 7 6 6 6 6 6 6 6 5 4 4 4 4 5 4 4 4 3 3 3 2 2 1 1 0 0 -0 -1 -1 -1 -1 -1 -1 -1 -1 -1 -1
9 8 7 6 6 5 6 6 5 5 5 5 4 3 2 1 2 3 4 4 3 3 2 3 3 2 2 1 1 -0 -1 -1 -1 -1 -2 -2 -2 -2 -1 -1 -1 -1 -2
6 6 6 5 5 5 5 4 3 4 3 3 3 1 2 2 3 3 3 3 3 3 2 2 2 2 1 1 -0 -1 -1 -2 -2 -2 -2 -2 -2 -2 -1 -1 -1 -2 -3
5 5 5 4 4 4 3 2 2 1 0 0 1 2 3 3 3 3 2 1 2 2 2 2 2 1 1 0 -0 -1 -1 -2 -2 -2 -2 -3 -2 -2 -2 -1 -2 -3 -3
4 4 3 3 2 2 2 1 1 -0 -0 1 2 1 1 1 1 -0 1 2 2 2 2 1 1 1 1 0 -0 -0 -1 -1 -2 -3 -3 -3 -3 -2 -2 -2 -3 -3 -3
2 1 1 1 1 1 1 0 -0 0 0 1 0 0 0 1 1 2 2 2 2 2 1 1 0 0 -0 -1 -1 -1 -2 -2 -3 -4 -4 -4 -3 -3 -3 -4 -4 -3 -3
2 1 1 1 1 -0 1 -0 -0 1 -0 -0 1 2 2 2 2 2 2 1 1 1 0 -0 -1 -2 -2 -2 -3 -4 -3 -4 -4 -4 -4 -3 -4 -5 -5 -5 -4 -5 -6
3 3 3 2 1 1 1 1 1 1 2 2 1 1 2 2 2 1 1 1 0 -0 -1 -2 -3 -3 -3 -4 -4 -4 -4 -4 -4 -4 -4 -5 -6 -6 -6 -6 -6 -6 -7
3 2 1 1 1 1 1 1 2 3 2 1 1 1 2 1 1 1 0 -0 -1 -1 -2 -3 -3 -4 -4 -4 -4 -4 -4 -3 -4 -4 -5 -6 -7 -7 -7 -7 -7 -7 -7
3 2 2 1 1 1 1 2 2 3 2 1 1 1 1 0 0 -0 -1 -1 -2 -2 -2 -3 -3 -3 -4 -4 -4 -4 -4 -4 -5 -6 -7 -8 -8 -8 -8 -8 -8 -8 -8